ACA030 ZBAA-CYVR

Flight info

Callsign ACA030
Flight time N/A
Altitude 35100
Route MUGLO W34 VAPGU W100 ORAVA W201 UNSEK A326 DONVO G597 AGAVO Y644 EGOBA G597 KARBU LANAT Y51 SAMON Y142 GTC R217 SDE Y512 OATIS OTR3 PUTER A590 PUGGY R341 ODK J123 CJAYY PHINK KATCH POWOL WHSLR8
Aircraft B789/H-SDE1E2E3FGHIJ2J3J4J5M1RWXY/LB1D1

Departure

Time 2026-05-07 23:51
Airport Beijing Capital International Airport (ZBAA)

Arrival

Time N/A
Airport Vancouver International Airport (CYVR)
Time Latitude Longitude Altitude Speed Heading
2026-05-07 23:37 40.07347 116.60470 123 ft 0 kts 83°
2026-05-07 23:42 40.07347 116.60467 126 ft 3 kts 83°
2026-05-07 23:43 40.07344 116.60433 125 ft 4 kts 83°
2026-05-07 23:43 40.07341 116.60403 126 ft 4 kts 86°
2026-05-07 23:43 40.07344 116.60370 124 ft 4 kts 120°
2026-05-07 23:43 40.07362 116.60348 123 ft 4 kts 162°
2026-05-07 23:44 40.07388 116.60342 123 ft 4 kts 175°
2026-05-07 23:44 40.07398 116.60341 126 ft 0 kts 173°
2026-05-07 23:45 40.07387 116.60342 123 ft 7 kts 174°
2026-05-07 23:46 40.07339 116.60292 124 ft 13 kts 256°
2026-05-07 23:46 40.07324 116.60134 129 ft 19 kts 263°
2026-05-07 23:46 40.07285 116.59992 126 ft 15 kts 204°
2026-05-07 23:46 40.07188 116.59993 126 ft 16 kts 173°
2026-05-07 23:47 40.07058 116.60013 123 ft 19 kts 173°
2026-05-07 23:47 40.06928 116.60033 125 ft 19 kts 173°
2026-05-07 23:47 40.06801 116.60054 124 ft 18 kts 173°
2026-05-07 23:47 40.06676 116.60073 126 ft 19 kts 173°
2026-05-07 23:48 40.06536 116.60095 126 ft 22 kts 173°
2026-05-07 23:48 40.06368 116.60121 125 ft 25 kts 173°
2026-05-07 23:48 40.06200 116.60147 126 ft 24 kts 173°
2026-05-07 23:48 40.06035 116.60173 125 ft 23 kts 173°
2026-05-07 23:49 40.05881 116.60197 126 ft 22 kts 173°
2026-05-07 23:49 40.05737 116.60220 124 ft 19 kts 173°
2026-05-07 23:49 40.05647 116.60199 124 ft 10 kts 231°
2026-05-07 23:49 40.05630 116.60120 126 ft 9 kts 262°
2026-05-07 23:50 40.05636 116.60028 124 ft 9 kts 305°
2026-05-07 23:50 40.05682 116.59995 126 ft 7 kts 352°
2026-05-07 23:50 40.05722 116.59989 126 ft 12 kts 353°
2026-05-07 23:50 40.06068 116.59935 126 ft 75 kts 353°
2026-05-07 23:51 40.06498 116.59866 127 ft 109 kts 353°
2026-05-07 23:51 40.07759 116.59670 126 ft 165 kts 353°
2026-05-07 23:51 40.08959 116.59507 481 ft 168 kts 360°
2026-05-07 23:51 40.09750 116.59421 780 ft 171 kts 355°
2026-05-07 23:52 40.10996 116.59232 1003 ft 189 kts 350°
2026-05-07 23:52 40.12303 116.58953 1479 ft 191 kts 351°
2026-05-07 23:52 40.13628 116.58736 1897 ft 196 kts 352°
2026-05-07 23:52 40.15018 116.58526 2014 ft 211 kts 352°
2026-05-07 23:53 40.16530 116.58285 2161 ft 226 kts 352°
2026-05-07 23:53 40.18133 116.58034 2402 ft 236 kts 352°
2026-05-07 23:53 40.19830 116.57766 2596 ft 253 kts 352°
2026-05-07 23:53 40.21598 116.57500 3112 ft 256 kts 354°
2026-05-07 23:54 40.23358 116.57924 3452 ft 265 kts 26°
2026-05-07 23:54 40.24787 116.59411 4017 ft 267 kts 52°
2026-05-07 23:54 40.25489 116.61652 4598 ft 268 kts 78°
2026-05-07 23:54 40.25728 116.64072 5166 ft 268 kts 83°
2026-05-07 23:55 40.25892 116.66513 5657 ft 271 kts 83°
2026-05-07 23:55 40.26092 116.68983 6137 ft 275 kts 82°
2026-05-07 23:55 40.26326 116.71481 6634 ft 278 kts 81°
2026-05-07 23:55 40.26553 116.73983 7094 ft 281 kts 81°
2026-05-07 23:56 40.26775 116.76549 7554 ft 284 kts 81°
2026-05-07 23:56 40.26999 116.79136 8030 ft 288 kts 81°
2026-05-07 23:56 40.27227 116.81750 8486 ft 291 kts 81°
2026-05-07 23:56 40.27459 116.84396 8946 ft 294 kts 81°
2026-05-07 23:57 40.27692 116.87070 9406 ft 297 kts 80°
2026-05-07 23:57 40.27924 116.89768 9901 ft 299 kts 80°
2026-05-07 23:57 40.28159 116.92488 10336 ft 303 kts 80°
2026-05-07 23:57 40.28404 116.95295 10474 ft 318 kts 80°
2026-05-07 23:58 40.28334 116.98265 10457 ft 341 kts 103°
2026-05-07 23:58 40.27237 117.01096 10536 ft 359 kts 128°
2026-05-07 23:58 40.25327 117.03284 10618 ft 373 kts 148°
2026-05-07 23:58 40.23030 117.04960 10889 ft 382 kts 154°
2026-05-07 23:59 40.20657 117.06553 11318 ft 386 kts 153°
2026-05-07 23:59 40.18356 117.08391 11737 ft 390 kts 146°
2026-05-07 23:59 40.16146 117.10478 12187 ft 394 kts 144°
2026-05-07 23:59 40.13902 117.12558 12627 ft 397 kts 146°
2026-05-08 00:00 40.11600 117.14496 13083 ft 400 kts 148°
2026-05-08 00:00 40.09242 117.16459 13514 ft 404 kts 147°
2026-05-08 00:00 40.06865 117.18533 13963 ft 407 kts 146°
2026-05-08 00:00 40.04541 117.20586 14359 ft 411 kts 146°
2026-05-08 00:01 40.02148 117.22655 14733 ft 415 kts 147°
2026-05-08 00:01 39.99722 117.24727 15093 ft 418 kts 147°
2026-05-08 00:01 39.97287 117.26822 15507 ft 422 kts 147°
2026-05-08 00:01 39.94830 117.28953 15943 ft 426 kts 147°
2026-05-08 00:02 39.92346 117.31096 16363 ft 430 kts 147°
2026-05-08 00:02 39.89835 117.33251 16760 ft 434 kts 147°
2026-05-08 00:02 39.87303 117.35424 17181 ft 438 kts 147°
2026-05-08 00:02 39.84748 117.37621 17595 ft 442 kts 147°
2026-05-08 00:03 39.82170 117.39835 17987 ft 446 kts 147°
2026-05-08 00:03 39.79567 117.42066 18392 ft 450 kts 147°
2026-05-08 00:03 39.76934 117.44319 18750 ft 454 kts 147°
2026-05-08 00:03 39.74286 117.46586 19093 ft 457 kts 147°
2026-05-08 00:04 39.71623 117.48864 19465 ft 460 kts 147°
2026-05-08 00:04 39.68939 117.51157 19821 ft 463 kts 147°
2026-05-08 00:04 39.66270 117.53433 20148 ft 467 kts 147°
2026-05-08 00:04 39.63547 117.55754 20470 ft 470 kts 147°
2026-05-08 00:05 39.60795 117.58098 20798 ft 474 kts 148°
2026-05-08 00:05 39.58031 117.60451 21112 ft 477 kts 148°
2026-05-08 00:05 39.55246 117.62818 21445 ft 480 kts 148°
2026-05-08 00:05 39.52441 117.65200 21761 ft 483 kts 148°
2026-05-08 00:06 39.49615 117.67597 22071 ft 487 kts 148°
2026-05-08 00:06 39.46776 117.70003 22401 ft 490 kts 148°
2026-05-08 00:06 39.43908 117.72431 22703 ft 493 kts 148°
2026-05-08 00:06 39.41026 117.74870 23010 ft 496 kts 148°
2026-05-08 00:07 39.38123 117.77323 23314 ft 499 kts 148°
2026-05-08 00:07 39.35205 117.79785 23607 ft 502 kts 148°
2026-05-08 00:07 39.32269 117.82262 23878 ft 505 kts 148°
2026-05-08 00:07 39.29367 117.84707 24183 ft 506 kts 148°
2026-05-08 00:08 39.26371 117.87228 24446 ft 508 kts 149°
2026-05-08 00:08 39.23439 117.89692 24695 ft 511 kts 149°
2026-05-08 00:08 39.20452 117.92201 24946 ft 513 kts 149°
2026-05-08 00:08 39.17454 117.94716 25198 ft 515 kts 149°
2026-05-08 00:09 39.14441 117.97241 25451 ft 517 kts 149°
2026-05-08 00:09 39.11505 117.99955 25617 ft 522 kts 140°
2026-05-08 00:09 39.08974 118.03324 25870 ft 525 kts 128°
2026-05-08 00:09 39.06955 118.07237 26125 ft 525 kts 116°
2026-05-08 00:10 39.05515 118.11560 26275 ft 525 kts 104°
2026-05-08 00:10 39.04660 118.16112 26525 ft 522 kts 96°
2026-05-08 00:10 39.04102 118.20725 26771 ft 522 kts 93°
2026-05-08 00:10 39.03623 118.25368 26990 ft 525 kts 93°
2026-05-08 00:11 39.02965 118.30014 27196 ft 531 kts 98°
2026-05-08 00:11 39.02097 118.34659 27434 ft 534 kts 100°
2026-05-08 00:11 39.01240 118.39307 27647 ft 536 kts 98°
2026-05-08 00:11 39.00547 118.43961 27835 ft 537 kts 95°
2026-05-08 00:12 38.99872 118.48697 28061 ft 540 kts 97°
2026-05-08 00:12 38.99088 118.53440 28293 ft 544 kts 98°
2026-05-08 00:12 38.98255 118.58191 28495 ft 546 kts 98°
2026-05-08 00:12 38.97476 118.62971 28720 ft 547 kts 97°
2026-05-08 00:13 38.96734 118.67782 28968 ft 550 kts 97°
2026-05-08 00:13 38.95957 118.72606 29162 ft 553 kts 98°
2026-05-08 00:13 38.95137 118.77452 29381 ft 556 kts 98°
2026-05-08 00:13 38.94325 118.82313 29600 ft 557 kts 98°
2026-05-08 00:14 38.93535 118.87197 29821 ft 560 kts 98°
2026-05-08 00:14 38.92737 118.92100 30039 ft 562 kts 98°
2026-05-08 00:14 38.91915 118.97018 30251 ft 565 kts 98°
2026-05-08 00:14 38.91083 119.01970 30388 ft 568 kts 98°
2026-05-08 00:15 38.90269 119.06870 30592 ft 570 kts 98°
2026-05-08 00:15 38.89441 119.11862 30778 ft 572 kts 98°
2026-05-08 00:15 38.88603 119.16857 30968 ft 574 kts 98°
2026-05-08 00:15 38.87754 119.21873 31204 ft 574 kts 98°
2026-05-08 00:16 38.86908 119.26885 31464 ft 575 kts 98°
2026-05-08 00:16 38.86063 119.31899 31693 ft 575 kts 98°
2026-05-08 00:16 38.85213 119.36919 31948 ft 576 kts 98°
2026-05-08 00:16 38.84358 119.41935 32199 ft 576 kts 99°
2026-05-08 00:17 38.83501 119.46957 32467 ft 576 kts 99°
2026-05-08 00:17 38.82643 119.51978 32729 ft 576 kts 99°
2026-05-08 00:17 38.81783 119.57005 33008 ft 577 kts 99°
2026-05-08 00:17 38.80929 119.61967 33230 ft 577 kts 99°
2026-05-08 00:18 38.80062 119.66992 33476 ft 578 kts 99°
2026-05-08 00:18 38.79193 119.72018 33733 ft 578 kts 99°
2026-05-08 00:18 38.78321 119.77053 33991 ft 578 kts 99°
2026-05-08 00:18 38.77448 119.82078 34236 ft 578 kts 99°
2026-05-08 00:19 38.76583 119.87106 34422 ft 578 kts 99°
2026-05-08 00:19 38.75769 119.92145 34637 ft 577 kts 98°
2026-05-08 00:19 38.74967 119.97192 34851 ft 577 kts 98°
2026-05-08 00:19 38.74120 120.02217 35072 ft 578 kts 99°
2026-05-08 00:20 38.73245 120.07243 35221 ft 579 kts 99°
2026-05-08 00:20 38.72389 120.12289 35236 ft 579 kts 99°
2026-05-08 00:20 38.69893 120.22039 35225 ft 578 kts 117°
2026-05-08 00:21 38.65749 120.30759 35229 ft 578 kts 117°
2026-05-08 00:21 38.61757 120.39721 35247 ft 582 kts 122°
2026-05-08 00:22 38.57700 120.48661 35237 ft 581 kts 117°
2026-05-08 00:22 38.54922 120.58279 35227 ft 575 kts 99°
2026-05-08 00:23 38.53786 120.68347 35236 ft 572 kts 92°
2026-05-08 00:23 38.52567 120.78402 35265 ft 575 kts 99°
2026-05-08 00:24 38.50624 120.88291 35230 ft 572 kts 100°
2026-05-08 00:24 38.49132 120.98258 35236 ft 572 kts 97°
2026-05-08 00:25 38.47422 121.08188 35231 ft 573 kts 100°
2026-05-08 00:25 38.45787 121.18122 35232 ft 572 kts 98°
2026-05-08 00:26 38.44209 121.28016 35218 ft 573 kts 99°
2026-05-08 00:26 38.42580 121.37946 35215 ft 571 kts 98°
2026-05-08 00:27 38.40988 121.47879 35211 ft 571 kts 99°
2026-05-08 00:27 38.39313 121.57796 35217 ft 573 kts 99°
2026-05-08 00:28 38.37666 121.67746 35216 ft 575 kts 99°
2026-05-08 00:28 38.35980 121.77714 35213 ft 575 kts 99°
2026-05-08 00:29 38.34303 121.87667 35216 ft 575 kts 99°
2026-05-08 00:29 38.32606 121.97641 35220 ft 577 kts 100°
2026-05-08 00:30 38.30912 122.07552 35228 ft 575 kts 100°
2026-05-08 00:30 38.29202 122.17509 35217 ft 575 kts 100°
2026-05-08 00:31 38.27553 122.27470 35217 ft 574 kts 97°
2026-05-08 00:31 38.26123 122.37457 35215 ft 573 kts 99°
2026-05-08 00:32 38.24959 122.42324 35206 ft 575 kts 111°
2026-05-08 00:32 38.23165 122.46882 35208 ft 576 kts 123°
2026-05-08 00:32 38.20804 122.50986 35186 ft 573 kts 134°
2026-05-08 00:32 38.18047 122.54614 35214 ft 571 kts 139°
2026-05-08 00:33 38.12265 122.61554 35213 ft 573 kts 138°
2026-05-08 00:33 38.06784 122.68929 35218 ft 573 kts 137°
2026-05-08 00:34 38.01206 122.76040 35215 ft 571 kts 139°
2026-05-08 00:34 37.95660 122.83285 35211 ft 571 kts 137°
2026-05-08 00:35 37.90100 122.90458 35219 ft 570 kts 139°
2026-05-08 00:35 37.84534 122.97631 35209 ft 572 kts 138°
2026-05-08 00:36 37.78948 123.04831 35215 ft 573 kts 139°
2026-05-08 00:36 37.73379 123.11968 35117 ft 567 kts 139°
2026-05-08 00:37 37.67821 123.19097 35121 ft 571 kts 139°
2026-05-08 00:38 37.59459 123.29776 35116 ft 573 kts 139°
2026-05-08 00:38 37.54208 123.37374 35106 ft 577 kts 130°
2026-05-08 00:39 37.50252 123.44161 35113 ft 579 kts 130°
2026-05-08 00:39 37.45379 123.52260 35117 ft 580 kts 131°
2026-05-08 00:40 37.40536 123.60384 35120 ft 580 kts 130°
2026-05-08 00:40 37.35682 123.68477 35111 ft 579 kts 131°
2026-05-08 00:41 37.30825 123.76548 35099 ft 577 kts 130°
2026-05-08 00:41 37.26018 123.84540 35101 ft 577 kts 131°
2026-05-08 00:42 37.21186 123.92584 35095 ft 578 kts 128°
2026-05-08 00:42 37.19182 123.96976 35094 ft 583 kts 116°
2026-05-08 00:42 37.17775 124.01754 35091 ft 584 kts 105°
2026-05-08 00:42 37.17015 124.06755 35092 ft 583 kts 94°
2026-05-08 00:43 37.16912 124.11814 35101 ft 579 kts 84°
2026-05-08 00:43 37.17541 124.21854 35112 ft 577 kts 82°
2026-05-08 00:44 37.17805 124.31970 35115 ft 582 kts 88°
2026-05-08 00:44 37.17986 124.42067 35107 ft 582 kts 84°
2026-05-08 00:45 37.18305 124.52212 35095 ft 581 kts 87°
2026-05-08 00:45 37.18457 124.62321 35092 ft 578 kts 85°
2026-05-08 00:46 37.18738 124.72401 35088 ft 579 kts 86°
2026-05-08 00:46 37.18902 124.82506 35087 ft 580 kts 86°
2026-05-08 00:47 37.19136 124.92650 35087 ft 582 kts 86°
2026-05-08 00:47 37.19309 125.02741 35134 ft 583 kts 87°
2026-05-08 00:48 37.19504 125.12898 35079 ft 578 kts 87°
2026-05-08 00:48 37.19675 125.22984 35078 ft 579 kts 87°
2026-05-08 00:49 37.19844 125.33098 35088 ft 582 kts 87°
2026-05-08 00:49 37.20003 125.43257 35080 ft 583 kts 88°
2026-05-08 00:50 37.20153 125.53435 35072 ft 583 kts 88°
2026-05-08 00:50 37.20294 125.63623 35070 ft 583 kts 88°
2026-05-08 00:51 37.20423 125.73657 35063 ft 578 kts 88°
2026-05-08 00:51 37.20548 125.83776 35066 ft 583 kts 88°
2026-05-08 00:52 37.20663 125.93984 35078 ft 585 kts 88°
2026-05-08 00:52 37.20772 126.04202 35064 ft 583 kts 89°
2026-05-08 00:53 37.20870 126.14360 35061 ft 582 kts 89°
2026-05-08 00:53 37.20961 126.24477 35061 ft 582 kts 89°
2026-05-08 00:54 37.21042 126.34658 35065 ft 585 kts 89°
2026-05-08 00:54 37.21115 126.44889 35064 ft 586 kts 89°
2026-05-08 00:55 37.21179 126.55115 35050 ft 587 kts 89°
2026-05-08 00:55 37.21232 126.65398 35055 ft 589 kts 89°
2026-05-08 00:56 37.21277 126.75527 35024 ft 581 kts 90°
2026-05-08 00:56 37.21313 126.85740 35045 ft 586 kts 90°
2026-05-08 00:57 37.22161 126.95878 35026 ft 584 kts 72°
2026-05-08 00:57 37.23523 127.00646 35011 ft 578 kts 60°
2026-05-08 00:57 37.25478 127.05019 35019 ft 572 kts 50°
2026-05-08 00:58 37.30623 127.12460 35043 ft 559 kts 39°
2026-05-08 00:58 37.35906 127.19635 35043 ft 561 kts 43°
2026-05-08 00:59 37.41003 127.27083 35035 ft 562 kts 41°
2026-05-08 00:59 37.46170 127.34463 35009 ft 568 kts 50°
2026-05-08 00:59 37.48195 127.38757 35006 ft 575 kts 61°
2026-05-08 01:00 37.49627 127.43413 35004 ft 581 kts 72°
2026-05-08 01:00 37.51218 127.53404 34998 ft 582 kts 79°
2026-05-08 01:01 37.52450 127.63494 34973 ft 584 kts 89°
2026-05-08 01:01 37.52274 127.68583 34971 ft 582 kts 100°
2026-05-08 01:01 37.51439 127.73542 34947 ft 576 kts 111°
2026-05-08 01:02 37.48590 127.82965 34979 ft 576 kts 118°
2026-05-08 01:02 37.45731 127.92403 34979 ft 579 kts 112°
2026-05-08 01:03 37.43089 128.01932 34961 ft 574 kts 116°
2026-05-08 01:03 37.40233 128.11312 34956 ft 576 kts 114°
2026-05-08 01:04 37.37542 128.20804 34945 ft 575 kts 115°
2026-05-08 01:04 37.34723 128.30173 34939 ft 572 kts 115°
2026-05-08 01:05 37.31990 128.39567 34934 ft 572 kts 115°
2026-05-08 01:05 37.29213 128.48866 34928 ft 572 kts 115°
2026-05-08 01:06 37.26438 128.58242 34935 ft 573 kts 115°
2026-05-08 01:06 37.23647 128.67597 34908 ft 569 kts 116°
2026-05-08 01:07 37.20865 128.76888 34907 ft 569 kts 116°
2026-05-08 01:07 37.18079 128.86180 34913 ft 569 kts 116°
2026-05-08 01:08 37.15278 128.95472 34908 ft 571 kts 117°
2026-05-08 01:08 37.12481 129.04736 34895 ft 571 kts 117°
2026-05-08 01:09 37.09661 129.14037 34893 ft 571 kts 118°
2026-05-08 01:09 37.06812 129.23391 34897 ft 577 kts 117°
2026-05-08 01:10 37.03959 129.32760 34888 ft 576 kts 117°
2026-05-08 01:10 37.01084 129.42130 34880 ft 580 kts 119°
2026-05-08 01:11 36.98188 129.51568 34883 ft 580 kts 118°
2026-05-08 01:11 36.95290 129.60972 34877 ft 579 kts 119°
2026-05-08 01:12 36.92357 129.70434 34887 ft 586 kts 119°
2026-05-08 01:12 36.89442 129.79860 34888 ft 584 kts 119°
2026-05-08 01:13 36.86487 129.89322 34894 ft 586 kts 120°
2026-05-08 01:13 36.83524 129.98826 34898 ft 587 kts 120°
2026-05-08 01:14 36.80553 130.08304 34889 ft 584 kts 120°
2026-05-08 01:14 36.77588 130.17727 34887 ft 584 kts 120°
2026-05-08 01:15 36.74616 130.27154 34869 ft 582 kts 120°
2026-05-08 01:15 36.71651 130.36518 34886 ft 580 kts 120°
2026-05-08 01:16 36.68679 130.45878 34887 ft 580 kts 120°
2026-05-08 01:16 36.65732 130.55136 34889 ft 577 kts 120°
2026-05-08 01:17 36.62762 130.64417 34892 ft 577 kts 120°
2026-05-08 01:17 36.59784 130.73715 34918 ft 578 kts 120°
2026-05-08 01:18 36.56796 130.83003 34893 ft 577 kts 121°
2026-05-08 01:18 36.53803 130.92276 34847 ft 577 kts 121°
2026-05-08 01:19 36.50823 131.01490 34887 ft 573 kts 121°
2026-05-08 01:19 36.47832 131.10691 34890 ft 575 kts 121°
2026-05-08 01:20 36.44858 131.19840 34880 ft 569 kts 121°
2026-05-08 01:20 36.41879 131.28937 34879 ft 568 kts 121°
2026-05-08 01:21 36.38904 131.38033 34890 ft 566 kts 120°
2026-05-08 01:21 36.37727 131.42726 34878 ft 576 kts 109°
2026-05-08 01:21 36.37172 131.47626 34871 ft 587 kts 98°
2026-05-08 01:22 36.36881 131.57787 34852 ft 590 kts 97°
2026-05-08 01:22 36.36559 131.67885 34881 ft 584 kts 97°
2026-05-08 01:23 36.36234 131.77981 34827 ft 587 kts 97°
2026-05-08 01:23 36.35910 131.88047 34873 ft 582 kts 97°
2026-05-08 01:24 36.35563 131.98085 34879 ft 583 kts 97°
2026-05-08 01:24 36.35229 132.08017 34867 ft 578 kts 98°
2026-05-08 01:25 36.34869 132.17972 34865 ft 578 kts 98°
2026-05-08 01:25 36.34514 132.27941 34874 ft 578 kts 98°
2026-05-08 01:26 36.34142 132.37892 34871 ft 577 kts 98°
2026-05-08 01:26 36.33769 132.47808 34856 ft 573 kts 98°
2026-05-08 01:27 36.33451 132.56017 34861 ft 573 kts 98°
2026-05-08 01:27 36.33062 132.65886 34861 ft 569 kts 98°
2026-05-08 01:28 36.32670 132.75658 34849 ft 566 kts 98°
2026-05-08 01:28 36.32267 132.85420 34847 ft 567 kts 98°
2026-05-08 01:29 36.31861 132.95188 34863 ft 568 kts 98°
2026-05-08 01:29 36.31442 133.04971 34864 ft 568 kts 98°
2026-05-08 01:30 36.31017 133.14767 34863 ft 569 kts 98°
2026-05-08 01:30 36.30585 133.24510 34862 ft 569 kts 98°
2026-05-08 01:31 36.30145 133.34303 34849 ft 566 kts 98°
2026-05-08 01:31 36.29697 133.44025 34841 ft 564 kts 98°
2026-05-08 01:32 36.29243 133.53742 34840 ft 564 kts 98°
2026-05-08 01:32 36.28781 133.63460 34847 ft 564 kts 98°
2026-05-08 01:33 36.28316 133.73076 34840 ft 562 kts 98°
2026-05-08 01:33 36.27838 133.82780 34843 ft 563 kts 99°
2026-05-08 01:34 36.27353 133.92469 34841 ft 564 kts 99°
2026-05-08 01:34 36.26859 134.02178 34826 ft 564 kts 99°
2026-05-08 01:35 36.26358 134.11871 34831 ft 562 kts 99°
2026-05-08 01:35 36.25851 134.21521 34837 ft 561 kts 99°
2026-05-08 01:36 36.25339 134.31107 34834 ft 561 kts 99°
2026-05-08 01:36 36.24817 134.40756 34833 ft 561 kts 99°
2026-05-08 01:37 36.25119 134.50451 34823 ft 571 kts 81°
2026-05-08 01:37 36.26236 134.55184 34821 ft 574 kts 70°
2026-05-08 01:37 36.27914 134.59664 34838 ft 574 kts 63°
2026-05-08 01:38 36.31596 134.68457 34840 ft 575 kts 64°
2026-05-08 01:38 36.35038 134.77440 34831 ft 576 kts 64°
2026-05-08 01:39 36.38638 134.86327 34835 ft 576 kts 64°
2026-05-08 01:39 36.42130 134.95284 34826 ft 575 kts 65°
2026-05-08 01:40 36.45669 135.04213 34828 ft 576 kts 64°
2026-05-08 01:40 36.49179 135.13171 34827 ft 576 kts 65°
2026-05-08 01:41 36.52692 135.22140 34826 ft 578 kts 65°
2026-05-08 01:41 36.56181 135.31063 34821 ft 577 kts 65°
2026-05-08 01:42 36.59672 135.40041 34820 ft 576 kts 65°
2026-05-08 01:42 36.63166 135.49025 34815 ft 576 kts 65°
2026-05-08 01:43 36.66639 135.58006 34813 ft 575 kts 65°
2026-05-08 01:43 36.70103 135.66967 34806 ft 572 kts 65°
2026-05-08 01:44 36.73551 135.75929 34802 ft 573 kts 65°
2026-05-08 01:44 36.76966 135.84815 34798 ft 569 kts 66°
2026-05-08 01:45 36.80382 135.93747 34807 ft 571 kts 66°
2026-05-08 01:45 36.83806 136.02708 34815 ft 572 kts 66°
2026-05-08 01:46 36.87226 136.11696 34816 ft 572 kts 66°
2026-05-08 01:46 36.90611 136.20610 34815 ft 572 kts 66°
2026-05-08 01:47 36.94014 136.29601 34809 ft 572 kts 66°
2026-05-08 01:47 36.97404 136.38585 34807 ft 571 kts 66°
2026-05-08 01:48 37.02472 136.52060 34797 ft 570 kts 67°
2026-05-08 01:48 37.05831 136.61027 34794 ft 568 kts 67°
2026-05-08 01:49 37.09183 136.69997 34795 ft 569 kts 67°
2026-05-08 01:49 37.12532 136.78986 34807 ft 569 kts 67°
2026-05-08 01:50 37.15867 136.87961 34806 ft 568 kts 67°
2026-05-08 01:50 37.19194 136.96944 34810 ft 568 kts 67°
2026-05-08 01:51 37.22522 137.05952 34807 ft 569 kts 67°
2026-05-08 01:51 37.25822 137.14914 34807 ft 569 kts 68°
2026-05-08 01:52 37.29143 137.23954 34803 ft 570 kts 68°
2026-05-08 01:52 37.32456 137.33004 34804 ft 570 kts 68°
2026-05-08 01:53 37.35766 137.42070 34791 ft 570 kts 68°
2026-05-08 01:53 37.39053 137.51104 34798 ft 572 kts 68°
2026-05-08 01:54 37.42355 137.60202 34807 ft 571 kts 68°
2026-05-08 01:54 37.45646 137.69298 34800 ft 570 kts 69°
2026-05-08 01:55 37.48930 137.78404 34803 ft 570 kts 69°
2026-05-08 01:55 37.52203 137.87502 34805 ft 570 kts 69°
2026-05-08 01:56 37.55448 137.96553 34811 ft 569 kts 69°
2026-05-08 01:56 37.58701 138.05652 34808 ft 569 kts 69°
2026-05-08 01:57 37.61939 138.14740 34807 ft 568 kts 69°
2026-05-08 01:57 37.65165 138.23815 34803 ft 562 kts 69°
2026-05-08 01:58 37.68361 138.32843 34806 ft 565 kts 69°
2026-05-08 01:58 37.71571 138.41927 34810 ft 566 kts 69°
2026-05-08 01:59 37.74772 138.51014 34813 ft 566 kts 69°
2026-05-08 01:59 37.77951 138.60065 34796 ft 566 kts 69°
2026-05-08 02:00 37.81121 138.69120 34794 ft 561 kts 69°
2026-05-08 02:00 37.84276 138.78149 34793 ft 562 kts 69°
2026-05-08 02:01 37.87426 138.87206 34799 ft 563 kts 69°
2026-05-08 02:01 37.90581 138.96292 34807 ft 564 kts 69°
2026-05-08 02:02 37.93732 139.05403 34810 ft 564 kts 69°
2026-05-08 02:02 37.96217 139.14754 34793 ft 560 kts 85°
2026-05-08 02:03 37.97154 139.24542 34804 ft 558 kts 89°
2026-05-08 02:03 37.98176 139.34304 34808 ft 559 kts 86°
2026-05-08 02:04 37.99159 139.44002 34807 ft 558 kts 88°
2026-05-08 02:04 38.00214 139.53796 34812 ft 560 kts 85°
2026-05-08 02:05 38.01284 139.63561 34812 ft 559 kts 87°
2026-05-08 02:05 38.02301 139.73329 34808 ft 558 kts 86°
2026-05-08 02:06 38.03307 139.83024 34803 ft 551 kts 88°
2026-05-08 02:06 38.04160 139.92693 34803 ft 553 kts 87°
2026-05-08 02:07 38.05116 140.02345 34803 ft 554 kts 88°
2026-05-08 02:07 38.05993 140.12067 34783 ft 552 kts 88°
2026-05-08 02:08 38.06904 140.21716 34800 ft 550 kts 88°
2026-05-08 02:08 38.07814 140.31358 34800 ft 552 kts 86°
2026-05-08 02:09 38.08848 140.41021 34795 ft 552 kts 88°
2026-05-08 02:09 38.09862 140.50662 34796 ft 549 kts 87°
2026-05-08 02:10 38.10891 140.60284 34805 ft 550 kts 87°
2026-05-08 02:10 38.11799 140.69931 34807 ft 550 kts 89°
2026-05-08 02:11 38.12691 140.79572 34799 ft 547 kts 88°
2026-05-08 02:11 38.13579 140.89082 34792 ft 545 kts 89°
2026-05-08 02:12 38.13650 140.93859 34788 ft 536 kts 100°
2026-05-08 02:12 38.13168 140.98525 34802 ft 532 kts 105°
2026-05-08 02:12 38.12076 141.07880 34810 ft 536 kts 104°
2026-05-08 02:13 38.11048 141.17261 34802 ft 536 kts 104°
2026-05-08 02:13 38.09962 141.26580 34807 ft 537 kts 104°
2026-05-08 02:14 38.08898 141.35979 34810 ft 537 kts 104°
2026-05-08 02:14 38.07806 141.45351 34813 ft 537 kts 104°
2026-05-08 02:15 38.06901 141.53152 34815 ft 537 kts 104°
2026-05-08 02:15 38.05803 141.62528 34805 ft 538 kts 104°
2026-05-08 02:16 38.04692 141.71936 34809 ft 539 kts 104°
2026-05-08 02:16 38.03577 141.81332 34806 ft 538 kts 104°
2026-05-08 02:17 38.02456 141.90694 34805 ft 536 kts 104°
2026-05-08 02:17 38.01334 142.00015 34810 ft 535 kts 104°
2026-05-08 02:18 38.00201 142.09342 34818 ft 536 kts 104°
2026-05-08 02:18 37.99059 142.18685 34822 ft 536 kts 104°
2026-05-08 02:19 37.97908 142.28027 34823 ft 536 kts 104°
2026-05-08 02:19 37.96749 142.37377 34815 ft 537 kts 104°
2026-05-08 02:20 37.95589 142.46676 34816 ft 537 kts 104°
2026-05-08 02:20 37.94414 142.56030 34809 ft 538 kts 104°
2026-05-08 02:21 37.93231 142.65386 34811 ft 538 kts 104°
2026-05-08 02:21 37.92040 142.74750 34811 ft 537 kts 104°
2026-05-08 02:22 37.90847 142.84066 34811 ft 535 kts 104°
2026-05-08 02:22 37.89651 142.93337 34808 ft 533 kts 104°
2026-05-08 02:23 37.88446 143.02615 34808 ft 534 kts 104°
2026-05-08 02:23 37.87243 143.11834 34815 ft 534 kts 104°
2026-05-08 02:24 37.86026 143.21094 34811 ft 533 kts 104°
2026-05-08 02:24 37.84804 143.30341 34816 ft 532 kts 104°
2026-05-08 02:25 37.83576 143.39568 34819 ft 533 kts 104°
2026-05-08 02:25 37.82368 143.48833 34817 ft 535 kts 101°
2026-05-08 02:26 37.82274 143.53563 34814 ft 541 kts 89°
2026-05-08 02:26 37.82850 143.58280 34813 ft 545 kts 78°
2026-05-08 02:26 37.85274 143.67372 34833 ft 547 kts 72°
2026-05-08 02:27 37.87728 143.76497 34826 ft 548 kts 73°
2026-05-08 02:27 37.88930 143.81073 35049 ft 547 kts 73°
2026-05-08 02:27 37.90163 143.85620 35385 ft 544 kts 72°
2026-05-08 02:28 37.91380 143.90095 35672 ft 543 kts 73°
2026-05-08 02:28 37.92586 143.94633 35900 ft 542 kts 73°
2026-05-08 02:28 37.93780 143.99164 36146 ft 542 kts 73°
2026-05-08 02:28 37.94981 144.03679 36375 ft 541 kts 73°
2026-05-08 02:29 37.96188 144.08192 36610 ft 541 kts 73°
2026-05-08 02:29 37.97388 144.12710 36779 ft 542 kts 73°
2026-05-08 02:29 37.99781 144.21795 36809 ft 542 kts 73°
2026-05-08 02:30 38.02164 144.30815 36813 ft 537 kts 73°
2026-05-08 02:30 38.04514 144.39782 36823 ft 535 kts 73°
2026-05-08 02:31 38.06865 144.48761 36821 ft 536 kts 73°
2026-05-08 02:31 38.09188 144.57678 36821 ft 534 kts 73°
2026-05-08 02:32 38.11517 144.66645 36821 ft 535 kts 73°
2026-05-08 02:32 38.13843 144.75630 36830 ft 536 kts 73°
2026-05-08 02:33 38.16166 144.84638 36833 ft 536 kts 73°
2026-05-08 02:33 38.18483 144.93654 36834 ft 536 kts 74°
2026-05-08 02:34 38.20792 145.02672 36839 ft 536 kts 74°
2026-05-08 02:34 38.23077 145.11632 36844 ft 537 kts 74°
2026-05-08 02:35 38.25375 145.20673 36841 ft 537 kts 74°
2026-05-08 02:35 38.27673 145.29743 36828 ft 537 kts 74°
2026-05-08 02:36 38.29965 145.38831 36833 ft 538 kts 74°
2026-05-08 02:36 38.32322 145.47825 36818 ft 539 kts 68°
2026-05-08 02:37 38.34096 145.52030 36823 ft 540 kts 56°
2026-05-08 02:37 38.36428 145.55769 36824 ft 540 kts 45°
2026-05-08 02:37 38.42024 145.62171 36851 ft 541 kts 39°
2026-05-08 02:38 38.47550 145.68710 36852 ft 542 kts 43°
2026-05-08 02:38 38.53059 145.75271 36852 ft 541 kts 40°
2026-05-08 02:39 38.58607 145.81779 36852 ft 541 kts 42°
2026-05-08 02:39 38.64103 145.88373 36853 ft 542 kts 41°
2026-05-08 02:40 38.69619 145.94885 36874 ft 543 kts 42°
2026-05-08 02:40 38.75148 146.01522 36848 ft 543 kts 42°
2026-05-08 02:41 38.80671 146.08099 36845 ft 541 kts 42°
2026-05-08 02:41 38.86179 146.14716 36853 ft 542 kts 42°
2026-05-08 02:42 38.91701 146.21339 36852 ft 543 kts 42°
2026-05-08 02:42 38.97216 146.27982 36855 ft 543 kts 42°
2026-05-08 02:43 39.02732 146.34635 36847 ft 545 kts 42°
2026-05-08 02:43 39.08262 146.41321 36851 ft 546 kts 42°
2026-05-08 02:44 39.13748 146.47971 36852 ft 544 kts 42°
2026-05-08 02:44 39.19258 146.54662 36845 ft 543 kts 42°
2026-05-08 02:45 39.24747 146.61346 36847 ft 542 kts 42°
2026-05-08 02:45 39.30222 146.68024 36841 ft 542 kts 42°
2026-05-08 02:46 39.35711 146.74737 36850 ft 544 kts 42°
2026-05-08 02:46 39.41204 146.81470 36857 ft 545 kts 42°
2026-05-08 02:47 39.46704 146.88227 36854 ft 546 kts 42°
2026-05-08 02:47 39.52216 146.95014 36856 ft 546 kts 42°
2026-05-08 02:48 39.57716 147.01802 36852 ft 545 kts 42°
2026-05-08 02:48 39.63201 147.08587 36850 ft 545 kts 43°
2026-05-08 02:49 39.68686 147.15387 36849 ft 546 kts 42°
2026-05-08 02:49 39.74149 147.22176 36853 ft 547 kts 42°
2026-05-08 02:50 39.79649 147.29026 36851 ft 547 kts 43°
2026-05-08 02:50 39.85144 147.35887 36850 ft 547 kts 43°
2026-05-08 02:51 39.90635 147.42759 36848 ft 549 kts 42°
2026-05-08 02:51 39.96144 147.49669 36855 ft 550 kts 43°
2026-05-08 02:52 40.01645 147.56586 36838 ft 548 kts 43°
2026-05-08 02:52 40.07124 147.63491 36836 ft 547 kts 43°
2026-05-08 02:53 40.12597 147.70404 36833 ft 549 kts 43°
2026-05-08 02:53 40.18059 147.77320 36836 ft 550 kts 43°
2026-05-08 02:54 40.23565 147.84310 36842 ft 551 kts 43°
2026-05-08 02:54 40.29066 147.91307 36828 ft 551 kts 43°
2026-05-08 02:55 40.37297 148.01812 36826 ft 550 kts 43°
2026-05-08 02:56 40.42740 148.08778 36823 ft 550 kts 43°
2026-05-08 02:56 40.48213 148.15801 36818 ft 550 kts 43°
2026-05-08 02:57 40.53693 148.22848 36822 ft 551 kts 43°
2026-05-08 02:57 40.59172 148.29912 36810 ft 551 kts 43°
2026-05-08 02:58 40.64651 148.36993 36837 ft 552 kts 43°
2026-05-08 02:58 40.70104 148.44057 36838 ft 554 kts 43°
2026-05-08 02:59 40.75593 148.51186 36833 ft 553 kts 43°
2026-05-08 02:59 40.81053 148.58294 36826 ft 551 kts 43°
2026-05-08 03:00 40.86507 148.65410 36823 ft 551 kts 43°
2026-05-08 03:00 40.91968 148.72556 36816 ft 552 kts 43°
2026-05-08 03:01 40.97384 148.79657 36818 ft 551 kts 43°
2026-05-08 03:01 41.02825 148.86811 36816 ft 551 kts 43°
2026-05-08 03:02 41.08263 148.93977 36819 ft 551 kts 43°
2026-05-08 03:02 41.12771 148.99935 36818 ft 550 kts 43°
2026-05-08 03:03 41.18186 149.07113 36811 ft 550 kts 43°
2026-05-08 03:03 41.23592 149.14292 36809 ft 549 kts 43°
2026-05-08 03:04 41.28994 149.21485 36807 ft 550 kts 44°
2026-05-08 03:04 41.34402 149.28705 36808 ft 551 kts 44°
2026-05-08 03:05 41.39814 149.35947 36811 ft 551 kts 43°
2026-05-08 03:05 41.45225 149.43206 36811 ft 552 kts 44°
2026-05-08 03:06 41.50633 149.50479 36811 ft 552 kts 44°
2026-05-08 03:06 41.56013 149.57733 36803 ft 553 kts 44°
2026-05-08 03:07 41.61426 149.65051 36802 ft 553 kts 44°
2026-05-08 03:07 41.66828 149.72371 36801 ft 553 kts 44°
2026-05-08 03:08 41.72235 149.79718 36797 ft 553 kts 44°
2026-05-08 03:08 41.77591 149.87013 36793 ft 553 kts 44°
2026-05-08 03:09 41.82984 149.94377 36796 ft 553 kts 44°
2026-05-08 03:09 41.88370 150.01750 36791 ft 554 kts 44°
2026-05-08 03:10 41.93754 150.09140 36792 ft 553 kts 44°
2026-05-08 03:10 41.99125 150.16531 36791 ft 553 kts 44°
2026-05-08 03:11 42.04492 150.23935 36788 ft 552 kts 44°
2026-05-08 03:11 42.09853 150.31351 36789 ft 552 kts 44°
2026-05-08 03:12 42.15214 150.38786 36778 ft 553 kts 44°
2026-05-08 03:12 42.20545 150.46196 36788 ft 554 kts 44°
2026-05-08 03:13 42.25919 150.53688 36797 ft 555 kts 44°
2026-05-08 03:13 42.31291 150.61197 36793 ft 555 kts 44°
2026-05-08 03:14 42.36654 150.68710 36787 ft 554 kts 44°
2026-05-08 03:14 42.41961 150.76167 36785 ft 553 kts 44°
2026-05-08 03:15 42.47288 150.83672 36785 ft 553 kts 44°
2026-05-08 03:15 42.52621 150.91202 36787 ft 555 kts 44°
2026-05-08 03:16 42.57973 150.98781 36796 ft 557 kts 44°
2026-05-08 03:16 42.63334 151.06393 36792 ft 557 kts 44°
2026-05-08 03:17 42.68674 151.13995 36790 ft 555 kts 44°
2026-05-08 03:17 42.74001 151.21599 36786 ft 554 kts 44°
2026-05-08 03:18 42.79316 151.29206 36787 ft 553 kts 44°
2026-05-08 03:18 42.84616 151.36811 36790 ft 555 kts 44°
2026-05-08 03:19 42.89960 151.44499 36799 ft 560 kts 44°
2026-05-08 03:19 42.95312 151.52223 36797 ft 559 kts 44°
2026-05-08 03:20 43.00605 151.59878 36797 ft 557 kts 44°
2026-05-08 03:20 43.05912 151.67577 36792 ft 556 kts 44°
2026-05-08 03:21 43.11222 151.75300 36795 ft 557 kts 44°
2026-05-08 03:21 43.16530 151.83042 36828 ft 557 kts 44°
2026-05-08 03:22 43.21860 151.90835 36792 ft 562 kts 44°
2026-05-08 03:22 43.27209 151.98680 36798 ft 563 kts 44°
2026-05-08 03:23 43.32522 152.06492 36812 ft 563 kts 44°
2026-05-08 03:23 43.37864 152.14370 36804 ft 563 kts 44°
2026-05-08 03:24 43.43189 152.22244 36804 ft 562 kts 44°
2026-05-08 03:24 43.48507 152.30128 36807 ft 561 kts 44°
2026-05-08 03:25 43.53811 152.38015 36812 ft 562 kts 44°
2026-05-08 03:25 43.59128 152.45944 36814 ft 564 kts 44°
2026-05-08 03:26 43.64455 152.53907 36817 ft 565 kts 44°
2026-05-08 03:26 43.69781 152.61894 36817 ft 565 kts 44°
2026-05-08 03:27 43.75092 152.69880 36821 ft 564 kts 44°
2026-05-08 03:27 43.80398 152.77879 36822 ft 563 kts 44°
2026-05-08 03:28 43.85651 152.85824 36823 ft 563 kts 44°
2026-05-08 03:28 43.90936 152.93840 36826 ft 562 kts 44°
2026-05-08 03:29 43.96214 153.01863 36824 ft 563 kts 44°
2026-05-08 03:29 44.01496 153.09920 36831 ft 564 kts 44°
2026-05-08 03:30 44.09422 153.22051 36836 ft 565 kts 44°
2026-05-08 03:31 44.19930 153.38216 36837 ft 564 kts 44°
2026-05-08 03:32 44.27790 153.50365 36831 ft 561 kts 44°
2026-05-08 03:32 44.33017 153.58476 36828 ft 562 kts 44°
2026-05-08 03:33 44.38243 153.66608 36846 ft 563 kts 44°
2026-05-08 03:33 44.43476 153.74775 36847 ft 563 kts 44°
2026-05-08 03:34 44.48665 153.82894 36849 ft 563 kts 44°
2026-05-08 03:34 44.53882 153.91084 36850 ft 564 kts 44°
2026-05-08 03:35 44.59110 153.99313 36858 ft 565 kts 44°
2026-05-08 03:35 44.64340 154.07570 36864 ft 567 kts 44°
2026-05-08 03:36 44.69574 154.15860 36856 ft 566 kts 44°
2026-05-08 03:36 44.74786 154.24138 36861 ft 564 kts 44°
2026-05-08 03:37 44.79984 154.32415 36852 ft 564 kts 44°
2026-05-08 03:37 44.85171 154.40703 36907 ft 565 kts 44°
2026-05-08 03:38 44.90348 154.49140 36878 ft 572 kts 45°
2026-05-08 03:38 44.95509 154.57709 36880 ft 572 kts 44°
2026-05-08 03:39 45.00663 154.66161 36877 ft 571 kts 45°
2026-05-08 03:39 45.05797 154.74710 36880 ft 569 kts 44°
2026-05-08 03:40 45.10939 154.83221 36880 ft 569 kts 44°
2026-05-08 03:40 45.16073 154.91799 36887 ft 571 kts 45°
2026-05-08 03:41 45.21186 155.00334 36884 ft 573 kts 44°
2026-05-08 03:41 45.26344 155.08988 36893 ft 574 kts 44°
2026-05-08 03:42 45.31497 155.17656 36898 ft 574 kts 44°
2026-05-08 03:42 45.36642 155.26335 36907 ft 574 kts 44°
2026-05-08 03:43 45.41783 155.35037 36903 ft 574 kts 44°
2026-05-08 03:43 45.46917 155.43751 36900 ft 574 kts 44°
2026-05-08 03:44 45.52044 155.52484 36902 ft 574 kts 44°
2026-05-08 03:44 45.57132 155.61174 36895 ft 575 kts 44°
2026-05-08 03:45 45.62281 155.69999 36902 ft 574 kts 44°
2026-05-08 03:45 45.67353 155.78716 36900 ft 574 kts 44°
2026-05-08 03:46 45.72452 155.87513 36922 ft 573 kts 44°
2026-05-08 03:46 45.77532 155.96297 36904 ft 572 kts 44°
2026-05-08 03:47 45.82605 156.05101 36909 ft 573 kts 44°
2026-05-08 03:47 45.87681 156.13936 36915 ft 574 kts 44°
2026-05-08 03:48 45.92758 156.22805 36920 ft 575 kts 44°
2026-05-08 03:48 45.97803 156.31644 36917 ft 574 kts 44°
2026-05-08 03:49 46.02862 156.40535 36924 ft 574 kts 44°
2026-05-08 03:49 46.07913 156.49440 36916 ft 574 kts 44°
2026-05-08 03:50 46.12102 156.56846 36912 ft 573 kts 44°
2026-05-08 03:50 46.17136 156.65774 36915 ft 573 kts 44°
2026-05-08 03:51 46.22155 156.74704 36928 ft 573 kts 44°
2026-05-08 03:51 46.27188 156.83685 36919 ft 577 kts 44°
2026-05-08 03:52 46.32238 156.92730 36925 ft 578 kts 44°
2026-05-08 03:52 46.37284 157.01797 36926 ft 579 kts 44°
2026-05-08 03:53 46.42325 157.10882 36929 ft 577 kts 44°
2026-05-08 03:53 46.47314 157.19906 36926 ft 576 kts 44°
2026-05-08 03:54 46.52318 157.28985 36925 ft 575 kts 44°
2026-05-08 03:54 46.57307 157.38065 36923 ft 575 kts 44°
2026-05-08 03:55 46.62306 157.47191 36927 ft 579 kts 43°
2026-05-08 03:55 46.67335 157.56409 36939 ft 581 kts 44°
2026-05-08 03:56 46.72342 157.65617 36927 ft 578 kts 43°
2026-05-08 03:56 46.77295 157.74749 36917 ft 576 kts 43°
2026-05-08 03:57 46.82270 157.83955 36922 ft 578 kts 44°
2026-05-08 03:57 46.87245 157.93196 36933 ft 578 kts 43°
2026-05-08 03:58 46.92213 158.02449 36934 ft 578 kts 44°
2026-05-08 03:58 46.97173 158.11720 36918 ft 580 kts 43°
2026-05-08 03:59 47.02145 158.21048 36919 ft 581 kts 43°
2026-05-08 03:59 47.07075 158.30328 36923 ft 579 kts 43°
2026-05-08 04:00 47.12019 158.39661 36919 ft 579 kts 43°
2026-05-08 04:00 47.16951 158.49008 36925 ft 578 kts 43°
2026-05-08 04:01 47.21874 158.58366 36924 ft 577 kts 43°
2026-05-08 04:01 47.26777 158.67719 36927 ft 578 kts 44°
2026-05-08 04:02 47.31648 158.77046 36924 ft 577 kts 44°
2026-05-08 04:02 47.36539 158.86438 36924 ft 577 kts 44°
2026-05-08 04:03 47.41418 158.95845 36920 ft 576 kts 44°
2026-05-08 04:03 47.48721 159.09978 36923 ft 577 kts 44°
2026-05-08 04:04 47.53578 159.19421 36920 ft 576 kts 44°
2026-05-08 04:04 47.58429 159.28880 36922 ft 577 kts 44°
2026-05-08 04:05 47.63241 159.38305 36921 ft 576 kts 44°
2026-05-08 04:05 47.68097 159.47834 36924 ft 580 kts 44°
2026-05-08 04:06 47.72943 159.57397 36921 ft 579 kts 44°
2026-05-08 04:06 47.77779 159.66957 36920 ft 578 kts 44°
2026-05-08 04:07 47.82600 159.76529 36934 ft 578 kts 44°
2026-05-08 04:07 47.87416 159.86122 36899 ft 578 kts 44°
2026-05-08 04:08 47.92225 159.95731 36913 ft 579 kts 44°
2026-05-08 04:08 47.97008 160.05328 36907 ft 580 kts 44°
2026-05-08 04:09 48.01825 160.15023 36921 ft 583 kts 45°
2026-05-08 04:09 48.06640 160.24758 36904 ft 581 kts 45°
2026-05-08 04:10 48.11439 160.34483 36900 ft 580 kts 45°
2026-05-08 04:10 48.16219 160.44211 36915 ft 580 kts 45°
2026-05-08 04:11 48.21000 160.53975 36904 ft 581 kts 45°
2026-05-08 04:11 48.25774 160.63758 36902 ft 581 kts 45°
2026-05-08 04:12 48.30444 160.73687 36905 ft 583 kts 47°
2026-05-08 04:12 48.35075 160.83628 36898 ft 584 kts 46°
2026-05-08 04:13 48.39685 160.93715 36890 ft 584 kts 47°
2026-05-08 04:13 48.44297 161.03767 36886 ft 582 kts 47°
2026-05-08 04:14 48.48890 161.13834 36902 ft 583 kts 47°
2026-05-08 04:14 48.53473 161.23930 36896 ft 583 kts 47°
2026-05-08 04:15 48.58061 161.34048 36897 ft 584 kts 47°
2026-05-08 04:15 48.62633 161.44196 36900 ft 584 kts 47°
2026-05-08 04:16 48.67205 161.54360 36890 ft 584 kts 47°
2026-05-08 04:16 48.71729 161.64475 36943 ft 583 kts 47°
2026-05-08 04:17 48.76281 161.74675 36878 ft 583 kts 47°
2026-05-08 04:17 48.80811 161.84874 36883 ft 583 kts 48°
2026-05-08 04:18 48.85334 161.95090 36887 ft 583 kts 48°
2026-05-08 04:18 48.89849 162.05331 36882 ft 582 kts 48°
2026-05-08 04:19 48.94350 162.15575 36880 ft 582 kts 48°
2026-05-08 04:19 48.98825 162.25801 36881 ft 584 kts 48°
2026-05-08 04:20 49.03314 162.36103 36885 ft 583 kts 48°
2026-05-08 04:20 49.07798 162.46423 36917 ft 583 kts 48°
2026-05-08 04:21 49.12270 162.56762 36881 ft 584 kts 49°
2026-05-08 04:21 49.16733 162.67121 36882 ft 584 kts 49°
2026-05-08 04:22 49.21187 162.77495 36877 ft 583 kts 49°
2026-05-08 04:22 49.25630 162.87889 36876 ft 583 kts 49°
2026-05-08 04:23 49.30025 162.98207 36872 ft 582 kts 49°
2026-05-08 04:23 49.34455 163.08649 36877 ft 583 kts 49°
2026-05-08 04:24 49.38875 163.19107 36883 ft 584 kts 49°
2026-05-08 04:24 49.43293 163.29603 36920 ft 586 kts 49°
2026-05-08 04:25 49.47690 163.40097 36865 ft 582 kts 50°
2026-05-08 04:25 49.52047 163.50522 36868 ft 582 kts 50°
2026-05-08 04:26 49.56414 163.61022 36872 ft 582 kts 50°
2026-05-08 04:26 49.60770 163.71535 36881 ft 581 kts 50°
2026-05-08 04:27 49.65108 163.82048 36876 ft 580 kts 50°
2026-05-08 04:27 49.69440 163.92583 36877 ft 581 kts 50°
2026-05-08 04:28 49.73770 164.03162 36882 ft 582 kts 50°
2026-05-08 04:28 49.78063 164.13691 36878 ft 581 kts 50°
2026-05-08 04:29 49.82355 164.24261 36867 ft 576 kts 51°
2026-05-08 04:29 49.86609 164.34772 36868 ft 576 kts 51°
2026-05-08 04:30 49.90858 164.45318 36879 ft 576 kts 51°
2026-05-08 04:30 49.95092 164.55877 36875 ft 574 kts 51°
2026-05-08 04:31 49.99309 164.66418 36874 ft 574 kts 51°
2026-05-08 04:31 50.03515 164.76991 36878 ft 575 kts 51°
2026-05-08 04:32 50.07697 164.87537 36878 ft 574 kts 51°
2026-05-08 04:32 50.11877 164.98124 36868 ft 573 kts 51°
2026-05-08 04:33 50.16053 165.08734 36868 ft 572 kts 52°
2026-05-08 04:33 50.20139 165.19239 36878 ft 570 kts 52°
2026-05-08 04:34 50.24184 165.29832 36879 ft 569 kts 52°
2026-05-08 04:34 50.28273 165.40467 36877 ft 569 kts 52°
2026-05-08 04:35 50.32326 165.51134 36879 ft 570 kts 53°
2026-05-08 04:35 50.36390 165.61823 36870 ft 570 kts 53°
2026-05-08 04:36 50.40418 165.72490 36865 ft 568 kts 53°
2026-05-08 04:36 50.44414 165.83100 36862 ft 567 kts 53°
2026-05-08 04:37 50.48422 165.93790 36863 ft 568 kts 53°
2026-05-08 04:37 50.52396 166.04442 36854 ft 559 kts 54°
2026-05-08 04:38 50.56317 166.14980 36867 ft 559 kts 54°
2026-05-08 04:38 50.60215 166.25507 36874 ft 562 kts 54°
2026-05-08 04:39 50.64144 166.36165 36878 ft 563 kts 54°
2026-05-08 04:39 50.67436 166.45123 36876 ft 563 kts 54°
2026-05-08 04:40 50.71346 166.55809 36876 ft 562 kts 54°
2026-05-08 04:40 50.75223 166.66443 36872 ft 562 kts 54°
2026-05-08 04:41 50.79105 166.77142 36867 ft 561 kts 54°
2026-05-08 04:41 50.82963 166.87818 36862 ft 557 kts 55°
2026-05-08 04:42 50.86814 166.98515 36857 ft 558 kts 55°
2026-05-08 04:42 50.90648 167.09213 36863 ft 559 kts 55°
2026-05-08 04:43 50.94475 167.19935 36869 ft 559 kts 55°
2026-05-08 04:43 50.98282 167.30649 36866 ft 556 kts 55°
2026-05-08 04:44 51.02071 167.41352 36863 ft 556 kts 55°
2026-05-08 04:44 51.05851 167.52081 36874 ft 556 kts 55°
2026-05-08 04:45 51.09621 167.62823 36868 ft 556 kts 56°
2026-05-08 04:45 51.13374 167.73565 36864 ft 554 kts 56°
2026-05-08 04:46 51.17089 167.84236 36871 ft 555 kts 56°
2026-05-08 04:46 51.20818 167.95002 36870 ft 553 kts 56°
2026-05-08 04:47 51.24527 168.05752 36869 ft 552 kts 57°
2026-05-08 04:47 51.28210 168.16472 36868 ft 549 kts 57°
2026-05-08 04:48 51.31883 168.27208 36868 ft 550 kts 57°
2026-05-08 04:48 51.35520 168.37885 36874 ft 550 kts 57°
2026-05-08 04:49 51.39173 168.48658 36874 ft 549 kts 57°
2026-05-08 04:49 51.42800 168.59397 36874 ft 548 kts 57°
2026-05-08 04:50 51.46420 168.70160 36873 ft 548 kts 57°
2026-05-08 04:50 51.50026 168.80931 36872 ft 548 kts 57°
2026-05-08 04:51 51.53629 168.91734 36865 ft 546 kts 58°
2026-05-08 04:51 51.57162 169.02387 36863 ft 543 kts 58°
2026-05-08 04:52 51.60716 169.13131 36863 ft 544 kts 58°
2026-05-08 04:52 51.64261 169.23908 36863 ft 545 kts 58°
2026-05-08 04:53 51.67798 169.34697 36881 ft 544 kts 58°
2026-05-08 04:53 51.71304 169.45450 36874 ft 541 kts 58°
2026-05-08 04:54 51.74800 169.56206 36873 ft 541 kts 59°
2026-05-08 04:54 51.78283 169.66981 36872 ft 541 kts 59°
2026-05-08 04:55 51.81735 169.77700 36867 ft 541 kts 59°
2026-05-08 04:55 51.85194 169.88488 36901 ft 539 kts 59°
2026-05-08 04:56 51.88628 169.99251 36870 ft 537 kts 59°
2026-05-08 04:56 51.92050 170.10014 36872 ft 538 kts 59°
2026-05-08 04:57 51.95464 170.20805 36883 ft 538 kts 60°
2026-05-08 04:57 51.98843 170.31535 36874 ft 536 kts 60°
2026-05-08 04:58 52.02220 170.42301 36874 ft 535 kts 60°
2026-05-08 04:58 52.05586 170.53081 36874 ft 535 kts 60°
2026-05-08 04:59 52.08943 170.63880 36875 ft 535 kts 60°
2026-05-08 04:59 52.12468 170.74512 36855 ft 531 kts 51°
2026-05-08 05:00 52.17214 170.83629 36912 ft 529 kts 44°
2026-05-08 05:00 52.22040 170.92714 36891 ft 529 kts 46°
2026-05-08 05:01 52.26819 171.01829 36883 ft 528 kts 45°
2026-05-08 05:01 52.31618 171.10913 36887 ft 527 kts 46°
2026-05-08 05:02 52.36334 171.19968 36884 ft 526 kts 46°
2026-05-08 05:02 52.41096 171.29065 36889 ft 527 kts 46°
2026-05-08 05:03 52.45843 171.38221 36907 ft 528 kts 47°
2026-05-08 05:03 52.50601 171.47399 36883 ft 526 kts 47°
2026-05-08 05:04 52.55325 171.56562 36879 ft 524 kts 47°
2026-05-08 05:04 52.60025 171.65703 36879 ft 524 kts 47°
2026-05-08 05:05 52.64698 171.74828 36881 ft 525 kts 47°
2026-05-08 05:05 52.69407 171.84059 36888 ft 526 kts 47°
2026-05-08 05:06 52.74113 171.93313 36905 ft 527 kts 48°
2026-05-08 05:06 52.78791 172.02552 36884 ft 522 kts 48°
2026-05-08 05:07 52.83439 172.11759 36883 ft 522 kts 48°
2026-05-08 05:07 52.88062 172.20955 36884 ft 523 kts 48°
2026-05-08 05:08 52.92705 172.30224 36891 ft 523 kts 48°
2026-05-08 05:08 52.97349 172.39527 36887 ft 523 kts 49°
2026-05-08 05:09 53.01977 172.48835 36906 ft 521 kts 49°
2026-05-08 05:09 53.06584 172.58135 36895 ft 520 kts 49°
2026-05-08 05:10 53.13465 172.72088 36892 ft 520 kts 49°
2026-05-08 05:11 53.18047 172.81424 36898 ft 521 kts 50°
2026-05-08 05:11 53.22588 172.90710 36890 ft 519 kts 50°
2026-05-08 05:12 53.27145 173.00064 36891 ft 519 kts 50°
2026-05-08 05:12 53.31693 173.09432 36905 ft 518 kts 50°
2026-05-08 05:13 53.36221 173.18798 36901 ft 518 kts 50°
2026-05-08 05:13 53.40755 173.28207 36905 ft 519 kts 51°
2026-05-08 05:14 53.45271 173.37618 36897 ft 517 kts 51°
2026-05-08 05:14 53.49743 173.46971 36895 ft 516 kts 51°
2026-05-08 05:15 53.54149 173.56489 36883 ft 516 kts 56°
2026-05-08 05:15 53.58008 173.66710 36905 ft 517 kts 58°
2026-05-08 05:16 53.61899 173.76918 36889 ft 515 kts 57°
2026-05-08 05:16 53.65747 173.87064 36893 ft 513 kts 58°
2026-05-08 05:17 53.69541 173.97153 36882 ft 513 kts 58°
2026-05-08 05:17 53.73374 174.07326 36885 ft 514 kts 58°
2026-05-08 05:18 53.77193 174.17557 36892 ft 515 kts 58°
2026-05-08 05:18 53.81017 174.27801 36893 ft 514 kts 58°
2026-05-08 05:19 53.84808 174.38030 36888 ft 512 kts 59°
2026-05-08 05:19 53.88588 174.48252 36885 ft 511 kts 59°
2026-05-08 05:20 53.92356 174.58493 36887 ft 511 kts 59°
2026-05-08 05:20 53.96113 174.68742 36886 ft 511 kts 59°
2026-05-08 05:21 53.99860 174.79008 36896 ft 510 kts 59°
2026-05-08 05:21 54.03587 174.89261 36893 ft 510 kts 59°
2026-05-08 05:22 54.07308 174.99540 36893 ft 509 kts 59°
2026-05-08 05:22 54.11020 175.09836 36894 ft 510 kts 59°
2026-05-08 05:23 54.14721 175.20145 36896 ft 510 kts 59°
2026-05-08 05:23 54.18386 175.30396 36901 ft 508 kts 60°
2026-05-08 05:24 54.22053 175.40698 36898 ft 508 kts 60°
2026-05-08 05:24 54.25722 175.51043 36901 ft 509 kts 60°
2026-05-08 05:25 54.29384 175.61416 36906 ft 509 kts 60°
2026-05-08 05:25 54.33043 175.71823 36905 ft 510 kts 60°
2026-05-08 05:26 54.36695 175.82253 36894 ft 508 kts 60°
2026-05-08 05:26 54.40291 175.92570 36890 ft 506 kts 61°
2026-05-08 05:27 54.43896 176.02952 36891 ft 506 kts 61°
2026-05-08 05:27 54.47482 176.13326 36889 ft 504 kts 61°
2026-05-08 05:28 54.51055 176.23707 36889 ft 504 kts 61°
2026-05-08 05:28 54.54037 176.32401 36894 ft 502 kts 62°
2026-05-08 05:29 54.57579 176.42775 36894 ft 502 kts 62°
2026-05-08 05:29 54.61098 176.53119 36897 ft 502 kts 62°
2026-05-08 05:30 54.64628 176.63545 36897 ft 502 kts 62°
2026-05-08 05:30 54.68143 176.73966 36897 ft 502 kts 62°
2026-05-08 05:31 54.71646 176.84397 36891 ft 500 kts 63°
2026-05-08 05:31 54.75121 176.94793 36888 ft 498 kts 63°
2026-05-08 05:32 54.78583 177.05191 36894 ft 499 kts 63°
2026-05-08 05:32 54.82024 177.15571 36908 ft 501 kts 63°
2026-05-08 05:33 54.85486 177.26058 36891 ft 500 kts 63°
2026-05-08 05:33 54.88918 177.36497 36887 ft 496 kts 64°
2026-05-08 05:34 54.92324 177.46911 36887 ft 496 kts 64°
2026-05-08 05:34 54.95728 177.57355 36886 ft 496 kts 64°
2026-05-08 05:35 54.99125 177.67827 36886 ft 497 kts 64°
2026-05-08 05:35 55.02506 177.78292 36888 ft 494 kts 64°
2026-05-08 05:36 55.05862 177.88728 36892 ft 493 kts 64°
2026-05-08 05:36 55.09213 177.99194 36893 ft 494 kts 64°
2026-05-08 05:37 55.12563 178.09700 36908 ft 495 kts 64°
2026-05-08 05:37 55.15883 178.20155 36903 ft 495 kts 64°
2026-05-08 05:38 55.19216 178.30701 36898 ft 494 kts 64°
2026-05-08 05:38 55.22528 178.41230 36904 ft 493 kts 64°
2026-05-08 05:39 55.25826 178.51754 36900 ft 493 kts 64°
2026-05-08 05:39 55.29116 178.62302 36899 ft 493 kts 65°
2026-05-08 05:40 55.32395 178.72864 36903 ft 492 kts 65°
2026-05-08 05:40 55.35654 178.83349 36900 ft 492 kts 65°
2026-05-08 05:41 55.38926 178.93911 36910 ft 490 kts 64°
2026-05-08 05:41 55.42179 179.04475 36908 ft 491 kts 64°
2026-05-08 05:42 55.45436 179.15086 36915 ft 493 kts 65°
2026-05-08 05:42 55.48690 179.25745 36923 ft 494 kts 65°
2026-05-08 05:43 55.51938 179.36423 36927 ft 494 kts 65°
2026-05-08 05:43 55.55140 179.47003 36906 ft 490 kts 65°
2026-05-08 05:44 55.58336 179.57611 36919 ft 488 kts 65°
2026-05-08 05:44 55.61520 179.68224 36922 ft 488 kts 65°
2026-05-08 05:45 55.64694 179.78852 36918 ft 489 kts 65°
2026-05-08 05:45 55.67867 179.89527 36923 ft 489 kts 65°
2026-05-08 05:46 55.71029 -179.99788 36940 ft 489 kts 65°
2026-05-08 05:46 55.74173 -179.89115 36939 ft 487 kts 65°
2026-05-08 05:47 55.77299 -179.78454 36930 ft 487 kts 65°
2026-05-08 05:47 55.80398 -179.67840 36945 ft 486 kts 65°
2026-05-08 05:48 55.83499 -179.57168 36937 ft 485 kts 65°
2026-05-08 05:48 55.86589 -179.46481 36941 ft 486 kts 65°
2026-05-08 05:49 55.89671 -179.35781 36951 ft 486 kts 65°
2026-05-08 05:49 55.92746 -179.25050 36957 ft 486 kts 65°
2026-05-08 05:50 55.95809 -179.14314 36949 ft 486 kts 65°
2026-05-08 05:50 55.98866 -179.03552 36954 ft 486 kts 65°
2026-05-08 05:51 56.01910 -178.92781 36966 ft 486 kts 65°
2026-05-08 05:51 56.04941 -178.82002 36969 ft 483 kts 65°
2026-05-08 05:52 56.07931 -178.71334 36966 ft 482 kts 65°
2026-05-08 05:52 56.10934 -178.60554 36979 ft 483 kts 66°
2026-05-08 05:53 56.13928 -178.49766 36979 ft 483 kts 66°
2026-05-08 05:53 56.16895 -178.39017 36984 ft 484 kts 65°
2026-05-08 05:54 56.19873 -178.28181 36987 ft 483 kts 65°
2026-05-08 05:54 56.22825 -178.17394 36986 ft 479 kts 65°
2026-05-08 05:55 56.25756 -178.06614 36988 ft 480 kts 65°
2026-05-08 05:55 56.28672 -177.95864 36992 ft 481 kts 65°
2026-05-08 05:56 56.31589 -177.85044 36996 ft 480 kts 65°
2026-05-08 05:56 56.34493 -177.74227 36994 ft 479 kts 65°
2026-05-08 05:57 56.37385 -177.63399 36998 ft 477 kts 65°
2026-05-08 05:57 56.40255 -177.52603 36997 ft 477 kts 65°
2026-05-08 05:58 56.43120 -177.41771 37001 ft 478 kts 65°
2026-05-08 05:58 56.45957 -177.31001 37003 ft 477 kts 66°
2026-05-08 05:59 56.48802 -177.20141 37007 ft 477 kts 66°
2026-05-08 05:59 56.51640 -177.09258 37008 ft 477 kts 66°
2026-05-08 06:00 56.54462 -176.98387 37007 ft 476 kts 66°
2026-05-08 06:00 56.57275 -176.87495 37010 ft 477 kts 66°
2026-05-08 06:01 56.60061 -176.76652 37020 ft 476 kts 66°
2026-05-08 06:01 56.62854 -176.65733 37020 ft 477 kts 66°
2026-05-08 06:02 56.65639 -176.54790 37019 ft 477 kts 66°
2026-05-08 06:02 56.68414 -176.43835 37019 ft 476 kts 66°
2026-05-08 06:03 56.71175 -176.32880 37026 ft 476 kts 66°
2026-05-08 06:03 56.73926 -176.21908 37028 ft 476 kts 66°
2026-05-08 06:04 56.76667 -176.10920 37028 ft 476 kts 66°
2026-05-08 06:04 56.79384 -175.99976 37033 ft 477 kts 66°
2026-05-08 06:05 56.82112 -175.88936 37033 ft 477 kts 66°
2026-05-08 06:05 56.84821 -175.77877 37035 ft 477 kts 66°
2026-05-08 06:06 56.87515 -175.66805 37043 ft 477 kts 66°
2026-05-08 06:06 56.90201 -175.55725 37041 ft 477 kts 66°
2026-05-08 06:07 56.92876 -175.44623 37044 ft 476 kts 66°
2026-05-08 06:07 56.95546 -175.33495 37047 ft 478 kts 67°
2026-05-08 06:08 56.98188 -175.22419 37049 ft 477 kts 66°
2026-05-08 06:08 57.00838 -175.11258 37047 ft 476 kts 66°
2026-05-08 06:09 57.03473 -175.00099 37056 ft 477 kts 66°
2026-05-08 06:09 57.06102 -174.88906 37061 ft 478 kts 66°
2026-05-08 06:10 57.08724 -174.77691 37061 ft 477 kts 67°
2026-05-08 06:10 57.11331 -174.66472 37063 ft 477 kts 66°
2026-05-08 06:11 57.13932 -174.55230 37067 ft 477 kts 66°
2026-05-08 06:11 57.16521 -174.43972 37071 ft 477 kts 67°
2026-05-08 06:12 57.19102 -174.32694 37073 ft 478 kts 67°
2026-05-08 06:12 57.21673 -174.21399 37074 ft 477 kts 67°
2026-05-08 06:13 57.24235 -174.10085 37072 ft 477 kts 67°
2026-05-08 06:13 57.26768 -173.98833 37076 ft 479 kts 67°
2026-05-08 06:14 57.29320 -173.87442 37080 ft 479 kts 67°
2026-05-08 06:14 57.31863 -173.76025 37081 ft 480 kts 67°
2026-05-08 06:15 57.34403 -173.64587 37086 ft 479 kts 66°
2026-05-08 06:15 57.37016 -173.53228 37086 ft 479 kts 66°
2026-05-08 06:16 57.39149 -173.43756 37086 ft 479 kts 67°
2026-05-08 06:16 57.42133 -173.30491 37093 ft 479 kts 66°
2026-05-08 06:17 57.45548 -173.15197 37090 ft 479 kts 67°
2026-05-08 06:17 57.48077 -173.03816 37091 ft 480 kts 66°
2026-05-08 06:18 57.50613 -172.92333 37093 ft 480 kts 67°
2026-05-08 06:18 57.53136 -172.80835 37098 ft 478 kts 67°
2026-05-08 06:19 57.55649 -172.69338 37105 ft 480 kts 67°
2026-05-08 06:19 57.58157 -172.57786 37104 ft 481 kts 67°
2026-05-08 06:20 57.60657 -172.46212 37110 ft 481 kts 67°
2026-05-08 06:20 57.63142 -172.34637 37107 ft 480 kts 67°
2026-05-08 06:21 57.65616 -172.23054 37108 ft 480 kts 67°
2026-05-08 06:21 57.68060 -172.11547 37115 ft 480 kts 68°
2026-05-08 06:22 57.70523 -171.99880 37114 ft 483 kts 67°
2026-05-08 06:22 57.72978 -171.88181 37113 ft 482 kts 67°
2026-05-08 06:23 57.75417 -171.76502 37113 ft 482 kts 68°
2026-05-08 06:23 57.77846 -171.64798 37116 ft 482 kts 68°
2026-05-08 06:24 57.80264 -171.53078 37114 ft 482 kts 68°
2026-05-08 06:24 57.82658 -171.41411 37113 ft 483 kts 68°
2026-05-08 06:25 57.85060 -171.29630 37122 ft 483 kts 68°
2026-05-08 06:25 57.87451 -171.17837 37119 ft 483 kts 68°
2026-05-08 06:26 57.89832 -171.06024 37115 ft 484 kts 68°
2026-05-08 06:26 57.92210 -170.94156 37115 ft 486 kts 68°
2026-05-08 06:27 57.94582 -170.82245 37125 ft 485 kts 68°
2026-05-08 06:27 57.96016 -170.69861 37120 ft 487 kts 84°
2026-05-08 06:28 57.96467 -170.57116 37124 ft 487 kts 84°
2026-05-08 06:28 57.96975 -170.44383 37122 ft 488 kts 84°
2026-05-08 06:29 57.97432 -170.31631 37121 ft 488 kts 84°
2026-05-08 06:29 57.97896 -170.18867 37118 ft 488 kts 84°
2026-05-08 06:30 57.98337 -170.06185 37120 ft 489 kts 84°
2026-05-08 06:30 57.98770 -169.93397 37123 ft 489 kts 84°
2026-05-08 06:31 57.99192 -169.80573 37122 ft 490 kts 85°
2026-05-08 06:31 57.99599 -169.67753 37120 ft 491 kts 85°
2026-05-08 06:32 57.99996 -169.54919 37125 ft 489 kts 85°
2026-05-08 06:32 58.00377 -169.42122 37113 ft 489 kts 85°
2026-05-08 06:33 58.00746 -169.29325 37108 ft 488 kts 85°
2026-05-08 06:33 58.01101 -169.16541 37106 ft 488 kts 85°
2026-05-08 06:34 58.01444 -169.03749 37107 ft 489 kts 85°
2026-05-08 06:34 58.01775 -168.90921 37119 ft 491 kts 85°
2026-05-08 06:35 58.02094 -168.78045 37116 ft 491 kts 85°
2026-05-08 06:35 58.02399 -168.65196 37112 ft 490 kts 85°
2026-05-08 06:36 58.02691 -168.52365 37108 ft 489 kts 85°
2026-05-08 06:36 58.02969 -168.39556 37188 ft 489 kts 85°
2026-05-08 06:37 58.03104 -168.33159 37510 ft 487 kts 85°
2026-05-08 06:37 58.03233 -168.26858 37768 ft 487 kts 86°
2026-05-08 06:37 58.03361 -168.20469 37984 ft 488 kts 86°
2026-05-08 06:37 58.03486 -168.14054 38189 ft 489 kts 86°
2026-05-08 06:38 58.03607 -168.07647 38407 ft 489 kts 86°
2026-05-08 06:38 58.03726 -168.01227 38627 ft 490 kts 86°
2026-05-08 06:38 58.03841 -167.94803 38817 ft 490 kts 86°
2026-05-08 06:38 58.03954 -167.88359 38959 ft 491 kts 86°
2026-05-08 06:39 58.04064 -167.81889 39066 ft 494 kts 86°
2026-05-08 06:39 58.04171 -167.75401 39099 ft 497 kts 86°
2026-05-08 06:39 58.04375 -167.62359 39095 ft 495 kts 86°
2026-05-08 06:40 58.04565 -167.49398 39092 ft 494 kts 86°
2026-05-08 06:40 58.04742 -167.36446 39091 ft 493 kts 86°
2026-05-08 06:41 58.04904 -167.23591 39093 ft 493 kts 87°
2026-05-08 06:41 58.05054 -167.10665 39095 ft 492 kts 87°
2026-05-08 06:42 58.05192 -166.97717 39094 ft 493 kts 87°
2026-05-08 06:42 58.05316 -166.84773 39090 ft 493 kts 87°
2026-05-08 06:43 58.05427 -166.71802 39094 ft 494 kts 87°
2026-05-08 06:43 58.05525 -166.58817 39091 ft 495 kts 87°
2026-05-08 06:44 58.05610 -166.45794 39098 ft 496 kts 87°
2026-05-08 06:44 58.05682 -166.32825 39093 ft 497 kts 88°
2026-05-08 06:45 58.05741 -166.19741 39095 ft 498 kts 88°
2026-05-08 06:45 58.05786 -166.06674 39092 ft 498 kts 88°
2026-05-08 06:46 58.05818 -165.93590 39088 ft 497 kts 88°
2026-05-08 06:46 58.05837 -165.80650 39076 ft 495 kts 88°
2026-05-08 06:47 58.05843 -165.67664 39080 ft 495 kts 88°
2026-05-08 06:47 58.05835 -165.54640 39077 ft 496 kts 88°
2026-05-08 06:48 58.05813 -165.41578 39080 ft 497 kts 88°
2026-05-08 06:48 58.05779 -165.28508 39072 ft 498 kts 89°
2026-05-08 06:49 58.05921 -165.15449 39071 ft 496 kts 85°
2026-05-08 06:49 58.06294 -165.02433 39062 ft 497 kts 85°
2026-05-08 06:50 58.06630 -164.89477 39064 ft 497 kts 85°
2026-05-08 06:50 58.06972 -164.76439 39058 ft 497 kts 85°
2026-05-08 06:51 58.07288 -164.63409 39050 ft 496 kts 86°
2026-05-08 06:51 58.07598 -164.50398 39041 ft 495 kts 86°
2026-05-08 06:52 58.07891 -164.37386 39054 ft 496 kts 86°
2026-05-08 06:52 58.08173 -164.24333 39048 ft 498 kts 86°
2026-05-08 06:53 58.08442 -164.11252 39045 ft 499 kts 86°
2026-05-08 06:53 58.08697 -163.98131 39041 ft 498 kts 86°
2026-05-08 06:54 58.08940 -163.85040 39040 ft 498 kts 86°
2026-05-08 06:54 58.09168 -163.71960 39029 ft 498 kts 86°
2026-05-08 06:55 58.09382 -163.58947 39030 ft 499 kts 87°
2026-05-08 06:55 58.09584 -163.45842 39028 ft 499 kts 87°
2026-05-08 06:56 58.09772 -163.32718 39027 ft 499 kts 87°
2026-05-08 06:56 58.09948 -163.19580 39023 ft 499 kts 87°
2026-05-08 06:57 58.10110 -163.06423 39027 ft 501 kts 87°
2026-05-08 06:57 58.10258 -162.93254 39021 ft 501 kts 88°
2026-05-08 06:58 58.10394 -162.80089 39010 ft 500 kts 88°
2026-05-08 06:58 58.10514 -162.67059 39015 ft 499 kts 88°
2026-05-08 06:59 58.10621 -162.53953 39005 ft 498 kts 88°
2026-05-08 06:59 58.10716 -162.40840 39008 ft 499 kts 88°
2026-05-08 07:00 58.10796 -162.27689 39010 ft 501 kts 88°
2026-05-08 07:00 58.10864 -162.14497 39008 ft 502 kts 88°
2026-05-08 07:01 58.10918 -162.01297 39009 ft 501 kts 89°
2026-05-08 07:01 58.10958 -161.88116 39008 ft 500 kts 89°
2026-05-08 07:02 58.10985 -161.74942 39001 ft 502 kts 89°
2026-05-08 07:02 58.10998 -161.61738 38998 ft 503 kts 89°
2026-05-08 07:03 58.10998 -161.50741 39004 ft 504 kts 89°
2026-05-08 07:03 58.10986 -161.37498 38997 ft 503 kts 89°
2026-05-08 07:04 58.10961 -161.24304 38986 ft 501 kts 89°
2026-05-08 07:04 58.10922 -161.11179 38989 ft 502 kts 90°
2026-05-08 07:05 58.10869 -160.97962 38991 ft 503 kts 90°
2026-05-08 07:05 58.10802 -160.84719 38995 ft 504 kts 90°
2026-05-08 07:06 58.10722 -160.71470 38990 ft 504 kts 90°
2026-05-08 07:06 58.10628 -160.58240 38997 ft 503 kts 90°
2026-05-08 07:07 58.10520 -160.45008 38989 ft 503 kts 90°
2026-05-08 07:07 58.10398 -160.31786 38988 ft 503 kts 90°
2026-05-08 07:08 58.10263 -160.18559 38987 ft 503 kts 90°
2026-05-08 07:08 58.10114 -160.05326 38997 ft 503 kts 90°
2026-05-08 07:09 58.09952 -159.92086 38986 ft 504 kts 91°
2026-05-08 07:09 58.09775 -159.78886 38999 ft 505 kts 91°
2026-05-08 07:10 58.09584 -159.65587 38989 ft 505 kts 91°
2026-05-08 07:10 58.09379 -159.52298 38984 ft 505 kts 91°
2026-05-08 07:11 58.09161 -159.39047 38980 ft 504 kts 91°
2026-05-08 07:11 58.08931 -159.25884 38977 ft 505 kts 91°
2026-05-08 07:12 58.08685 -159.12607 38976 ft 507 kts 92°
2026-05-08 07:12 58.08425 -158.99287 38989 ft 507 kts 92°
2026-05-08 07:13 58.08150 -158.85966 38972 ft 506 kts 92°
2026-05-08 07:13 58.07863 -158.72707 38967 ft 504 kts 92°
2026-05-08 07:14 58.07562 -158.59468 38964 ft 504 kts 92°
2026-05-08 07:14 58.07246 -158.46189 38978 ft 508 kts 92°
2026-05-08 07:15 58.06916 -158.32845 38978 ft 508 kts 92°
2026-05-08 07:15 58.06571 -158.19511 38981 ft 508 kts 93°
2026-05-08 07:16 58.06212 -158.06156 38976 ft 508 kts 93°
2026-05-08 07:16 58.05840 -157.92823 38979 ft 509 kts 93°
2026-05-08 07:17 58.05454 -157.79542 38974 ft 509 kts 93°
2026-05-08 07:17 58.05053 -157.66193 38972 ft 508 kts 93°
2026-05-08 07:18 58.04639 -157.52883 38965 ft 507 kts 94°
2026-05-08 07:18 58.04212 -157.39596 38960 ft 507 kts 94°
2026-05-08 07:19 58.03772 -157.26313 38959 ft 506 kts 94°
2026-05-08 07:19 58.03316 -157.13033 38959 ft 507 kts 94°
2026-05-08 07:20 58.02850 -156.99807 38959 ft 508 kts 94°
2026-05-08 07:20 58.02366 -156.86490 38971 ft 508 kts 94°
2026-05-08 07:21 58.01868 -156.73182 38958 ft 509 kts 95°
2026-05-08 07:21 58.01356 -156.59854 38955 ft 510 kts 95°
2026-05-08 07:22 58.00831 -156.46576 38963 ft 511 kts 95°
2026-05-08 07:22 58.00289 -156.33205 38961 ft 511 kts 95°
2026-05-08 07:23 57.99733 -156.19849 38960 ft 511 kts 95°
2026-05-08 07:23 57.99163 -156.06488 38948 ft 511 kts 95°
2026-05-08 07:24 57.98579 -155.93141 38944 ft 509 kts 96°
2026-05-08 07:24 57.97984 -155.79861 38941 ft 508 kts 96°
2026-05-08 07:25 57.97376 -155.66604 38942 ft 508 kts 96°
2026-05-08 07:26 57.96440 -155.46780 38940 ft 509 kts 96°
2026-05-08 07:26 57.95796 -155.33488 38955 ft 509 kts 96°
2026-05-08 07:27 57.95136 -155.20189 38950 ft 510 kts 96°
2026-05-08 07:27 57.94465 -155.06910 38948 ft 509 kts 96°
2026-05-08 07:28 57.93778 -154.93633 38955 ft 509 kts 97°
2026-05-08 07:28 57.93079 -154.80370 38952 ft 509 kts 97°
2026-05-08 07:29 57.92367 -154.67138 38948 ft 508 kts 97°
2026-05-08 07:29 57.91639 -154.53879 38952 ft 510 kts 97°
2026-05-08 07:30 57.90902 -154.40698 38957 ft 510 kts 97°
2026-05-08 07:30 57.90145 -154.27419 38963 ft 510 kts 97°
2026-05-08 07:31 57.89375 -154.14148 38959 ft 510 kts 97°
2026-05-08 07:31 57.88590 -154.00885 38952 ft 510 kts 97°
2026-05-08 07:32 57.87792 -153.87620 38957 ft 510 kts 98°
2026-05-08 07:32 57.86981 -153.74380 38950 ft 510 kts 98°
2026-05-08 07:33 57.86156 -153.61157 38948 ft 509 kts 98°
2026-05-08 07:33 57.85320 -153.47971 38955 ft 507 kts 98°
2026-05-08 07:34 57.84478 -153.34906 38947 ft 507 kts 98°
2026-05-08 07:34 57.83617 -153.21762 38960 ft 508 kts 98°
2026-05-08 07:35 57.82739 -153.08583 38966 ft 509 kts 98°
2026-05-08 07:35 57.81847 -152.95398 38977 ft 510 kts 98°
2026-05-08 07:36 57.80941 -152.82217 38962 ft 509 kts 99°
2026-05-08 07:36 57.80021 -152.69041 38985 ft 510 kts 99°
2026-05-08 07:37 57.79086 -152.55844 38985 ft 510 kts 99°
2026-05-08 07:37 57.78143 -152.42745 38982 ft 510 kts 99°
2026-05-08 07:38 57.76856 -152.29725 38986 ft 506 kts 108°
2026-05-08 07:38 57.74721 -152.17164 38967 ft 506 kts 109°
2026-05-08 07:39 57.72668 -152.04554 38957 ft 506 kts 109°
2026-05-08 07:39 57.70560 -151.91982 38953 ft 506 kts 109°
2026-05-08 07:40 57.68453 -151.79418 38942 ft 506 kts 109°
2026-05-08 07:40 57.66335 -151.66871 38946 ft 506 kts 109°
2026-05-08 07:41 57.64198 -151.54345 38943 ft 506 kts 109°
2026-05-08 07:41 57.62056 -151.41825 38944 ft 506 kts 110°
2026-05-08 07:42 57.59894 -151.29315 38937 ft 506 kts 110°
2026-05-08 07:42 57.57725 -151.16823 38939 ft 507 kts 110°
2026-05-08 07:43 57.55557 -151.04439 38932 ft 505 kts 110°
2026-05-08 07:43 57.53369 -150.92020 38930 ft 505 kts 110°
2026-05-08 07:44 57.51170 -150.79626 38931 ft 504 kts 110°
2026-05-08 07:44 57.48961 -150.67251 38925 ft 504 kts 110°
2026-05-08 07:45 57.46740 -150.54898 38922 ft 503 kts 110°
2026-05-08 07:45 57.44525 -150.42578 38928 ft 502 kts 110°
2026-05-08 07:46 57.42314 -150.30283 38925 ft 502 kts 110°
2026-05-08 07:46 57.40080 -150.18012 38925 ft 502 kts 111°
2026-05-08 07:47 57.37857 -150.05830 38934 ft 502 kts 111°
2026-05-08 07:47 57.35605 -149.93599 38930 ft 501 kts 111°
2026-05-08 07:48 57.33348 -149.81405 38928 ft 500 kts 111°
2026-05-08 07:48 57.31073 -149.69204 38930 ft 502 kts 111°
2026-05-08 07:49 57.28783 -149.56990 38938 ft 503 kts 111°
2026-05-08 07:49 57.26495 -149.44869 38922 ft 503 kts 111°
2026-05-08 07:50 57.24189 -149.32729 38920 ft 499 kts 111°
2026-05-08 07:50 57.21878 -149.20646 38920 ft 499 kts 111°
2026-05-08 07:51 57.19946 -149.10595 38920 ft 500 kts 111°
2026-05-08 07:51 57.17607 -148.98499 38924 ft 502 kts 112°
2026-05-08 07:52 57.15248 -148.86374 38917 ft 501 kts 112°
2026-05-08 07:52 57.12902 -148.74390 38917 ft 496 kts 112°
2026-05-08 07:53 57.10549 -148.62451 38921 ft 496 kts 112°
2026-05-08 07:53 57.08182 -148.50505 38921 ft 497 kts 112°
2026-05-08 07:54 57.05801 -148.38569 38920 ft 497 kts 112°
2026-05-08 07:54 57.03426 -148.26727 38921 ft 497 kts 112°
2026-05-08 07:55 57.01026 -148.14834 38920 ft 497 kts 112°
2026-05-08 07:55 56.98616 -148.02960 38922 ft 497 kts 112°
2026-05-08 07:56 56.96188 -147.91074 38927 ft 497 kts 112°
2026-05-08 07:56 56.93752 -147.79218 38913 ft 496 kts 112°
2026-05-08 07:57 56.91317 -147.67431 38919 ft 493 kts 113°
2026-05-08 07:57 56.88881 -147.55714 38914 ft 493 kts 113°
2026-05-08 07:58 56.86433 -147.44006 38918 ft 493 kts 113°
2026-05-08 07:58 56.83989 -147.32382 38916 ft 493 kts 113°
2026-05-08 07:59 56.81521 -147.20712 38923 ft 492 kts 113°
2026-05-08 07:59 56.79049 -147.09090 38924 ft 491 kts 113°
2026-05-08 08:00 56.76568 -146.97491 38921 ft 490 kts 114°
2026-05-08 08:00 56.74077 -146.85913 38928 ft 491 kts 114°
2026-05-08 08:01 56.71570 -146.74322 38910 ft 492 kts 114°
2026-05-08 08:01 56.69066 -146.62810 38916 ft 487 kts 114°
2026-05-08 08:02 56.66564 -146.51375 38919 ft 487 kts 114°
2026-05-08 08:02 56.64065 -146.40013 38921 ft 487 kts 114°
2026-05-08 08:03 56.61539 -146.28593 38916 ft 487 kts 114°
2026-05-08 08:03 56.59006 -146.17200 38922 ft 485 kts 114°
2026-05-08 08:04 56.56484 -146.05921 38914 ft 482 kts 114°
2026-05-08 08:04 56.53951 -145.94654 38919 ft 483 kts 114°
2026-05-08 08:05 56.51400 -145.83367 38919 ft 484 kts 114°
2026-05-08 08:05 56.48859 -145.72181 38921 ft 484 kts 114°
2026-05-08 08:06 56.46292 -145.60940 38912 ft 483 kts 114°
2026-05-08 08:06 56.43722 -145.49750 38913 ft 481 kts 115°
2026-05-08 08:07 56.41142 -145.38575 38921 ft 482 kts 115°
2026-05-08 08:07 56.38547 -145.27392 38920 ft 483 kts 115°
2026-05-08 08:08 56.35940 -145.16210 38913 ft 484 kts 115°
2026-05-08 08:08 56.33323 -145.05055 38922 ft 482 kts 115°
2026-05-08 08:09 56.30699 -144.93922 38920 ft 482 kts 115°
2026-05-08 08:09 56.28084 -144.82884 38924 ft 482 kts 115°
2026-05-08 08:10 56.25440 -144.71780 38925 ft 483 kts 115°
2026-05-08 08:10 56.22785 -144.60684 38931 ft 481 kts 116°
2026-05-08 08:11 56.20137 -144.49684 38926 ft 479 kts 116°
2026-05-08 08:11 56.17484 -144.38710 38926 ft 479 kts 116°
2026-05-08 08:12 56.14822 -144.27757 38932 ft 479 kts 116°
2026-05-08 08:12 56.12147 -144.16807 38933 ft 479 kts 116°
2026-05-08 08:13 56.09458 -144.05852 38920 ft 481 kts 116°
2026-05-08 08:13 56.06767 -143.94946 38931 ft 482 kts 116°
2026-05-08 08:14 56.04045 -143.83964 38937 ft 482 kts 116°
2026-05-08 08:14 56.01317 -143.73016 38934 ft 481 kts 116°
2026-05-08 08:15 55.98588 -143.62116 38914 ft 480 kts 117°
2026-05-08 08:15 55.95834 -143.51180 38929 ft 485 kts 117°
2026-05-08 08:16 55.93057 -143.40194 38933 ft 486 kts 117°
2026-05-08 08:16 55.90262 -143.29196 38935 ft 486 kts 117°
2026-05-08 08:17 55.87478 -143.18297 38938 ft 486 kts 117°
2026-05-08 08:17 55.84669 -143.07350 38938 ft 486 kts 117°
2026-05-08 08:18 55.81851 -142.96424 38934 ft 485 kts 117°
2026-05-08 08:18 55.79023 -142.85514 38932 ft 485 kts 117°
2026-05-08 08:19 55.76192 -142.74645 38931 ft 485 kts 117°
2026-05-08 08:19 55.73350 -142.63783 38918 ft 484 kts 118°
2026-05-08 08:20 55.70527 -142.53049 38929 ft 482 kts 118°
2026-05-08 08:20 55.67684 -142.42292 38928 ft 482 kts 118°
2026-05-08 08:21 55.64827 -142.31528 38933 ft 483 kts 118°
2026-05-08 08:21 55.61958 -142.20771 38935 ft 483 kts 118°
2026-05-08 08:22 55.59079 -142.10026 38927 ft 480 kts 118°
2026-05-08 08:22 55.56225 -141.99429 38927 ft 477 kts 119°
2026-05-08 08:23 55.53360 -141.88842 38929 ft 478 kts 119°
2026-05-08 08:23 55.50481 -141.78248 38933 ft 480 kts 119°
2026-05-08 08:24 55.47599 -141.67690 38940 ft 481 kts 119°
2026-05-08 08:24 55.44706 -141.57138 38930 ft 475 kts 119°
2026-05-08 08:25 55.41820 -141.46673 38922 ft 475 kts 120°
2026-05-08 08:25 55.38927 -141.36220 38924 ft 476 kts 120°
2026-05-08 08:26 55.36017 -141.25756 38929 ft 476 kts 120°
2026-05-08 08:26 55.33102 -141.15319 38938 ft 474 kts 120°
2026-05-08 08:27 55.30205 -141.04994 38935 ft 469 kts 120°
2026-05-08 08:27 55.27307 -140.94719 38934 ft 470 kts 120°
2026-05-08 08:28 55.24414 -140.84493 38939 ft 471 kts 120°
2026-05-08 08:28 55.21482 -140.74186 38943 ft 472 kts 120°
2026-05-08 08:29 55.18543 -140.63893 38935 ft 471 kts 120°
2026-05-08 08:29 55.15631 -140.53743 38932 ft 470 kts 120°
2026-05-08 08:30 55.12692 -140.43543 38932 ft 469 kts 120°
2026-05-08 08:30 55.08275 -140.28299 38933 ft 468 kts 120°
2026-05-08 08:31 55.05319 -140.18152 38938 ft 471 kts 120°
2026-05-08 08:31 55.02354 -140.08013 38948 ft 472 kts 120°
2026-05-08 08:32 54.99469 -139.97737 38940 ft 473 kts 114°
2026-05-08 08:32 54.97058 -139.87075 38949 ft 473 kts 115°
2026-05-08 08:33 54.94603 -139.76455 38950 ft 473 kts 115°
2026-05-08 08:33 54.92150 -139.65793 38943 ft 477 kts 115°
2026-05-08 08:34 54.89662 -139.55086 38943 ft 477 kts 115°
2026-05-08 08:34 54.87171 -139.44398 38940 ft 477 kts 115°
2026-05-08 08:35 54.84670 -139.33727 38946 ft 477 kts 115°
2026-05-08 08:35 54.82159 -139.23067 38932 ft 477 kts 115°
2026-05-08 08:36 54.79628 -139.12375 38938 ft 480 kts 115°
2026-05-08 08:36 54.77099 -139.01739 38938 ft 480 kts 115°
2026-05-08 08:37 54.74543 -138.91050 38951 ft 481 kts 115°
2026-05-08 08:37 54.71976 -138.80363 38952 ft 481 kts 115°
2026-05-08 08:38 54.69395 -138.69668 38947 ft 481 kts 116°
2026-05-08 08:38 54.67241 -138.60790 38943 ft 483 kts 116°
2026-05-08 08:39 54.64198 -138.48300 38946 ft 482 kts 116°
2026-05-08 08:39 54.61606 -138.37723 38939 ft 481 kts 116°
2026-05-08 08:40 54.59415 -138.28816 38947 ft 480 kts 116°
2026-05-08 08:40 54.56798 -138.18229 38945 ft 480 kts 116°
2026-05-08 08:41 54.54178 -138.07679 38943 ft 479 kts 116°
2026-05-08 08:41 54.51561 -137.97194 38944 ft 480 kts 116°
2026-05-08 08:42 54.48911 -137.86625 38950 ft 481 kts 116°
2026-05-08 08:42 54.46247 -137.76050 38936 ft 482 kts 117°
2026-05-08 08:43 54.43566 -137.65460 38948 ft 484 kts 117°
2026-05-08 08:43 54.40890 -137.54938 38944 ft 483 kts 117°
2026-05-08 08:44 54.38192 -137.44380 38945 ft 482 kts 117°
2026-05-08 08:44 54.35493 -137.33866 38940 ft 481 kts 117°
2026-05-08 08:45 54.32788 -137.23378 38948 ft 481 kts 117°
2026-05-08 08:45 54.30079 -137.12930 38949 ft 483 kts 118°
2026-05-08 08:46 54.27341 -137.02409 38950 ft 484 kts 118°
2026-05-08 08:46 54.24595 -136.91914 38949 ft 483 kts 118°
2026-05-08 08:47 54.21842 -136.81439 38944 ft 482 kts 118°
2026-05-08 08:47 54.19081 -136.70985 38947 ft 483 kts 118°
2026-05-08 08:48 54.16307 -136.60524 38948 ft 484 kts 118°
2026-05-08 08:48 54.13517 -136.50053 38955 ft 485 kts 118°
2026-05-08 08:49 54.10733 -136.39653 38951 ft 485 kts 118°
2026-05-08 08:49 54.07922 -136.29199 38947 ft 485 kts 119°
2026-05-08 08:50 54.05100 -136.18757 38948 ft 486 kts 119°
2026-05-08 08:50 54.02267 -136.08315 38947 ft 486 kts 119°
2026-05-08 08:51 53.99431 -135.97908 38955 ft 485 kts 119°
2026-05-08 08:51 53.96677 -135.87453 38952 ft 484 kts 118°
2026-05-08 08:52 53.93898 -135.77048 38962 ft 485 kts 120°
2026-05-08 08:52 53.91099 -135.66612 38962 ft 486 kts 119°
2026-05-08 08:53 53.88313 -135.56240 38961 ft 487 kts 120°
2026-05-08 08:53 53.85488 -135.45808 38963 ft 486 kts 119°
2026-05-08 08:54 53.82666 -135.35399 38951 ft 486 kts 120°
2026-05-08 08:54 53.79829 -135.25013 38957 ft 486 kts 120°
2026-05-08 08:55 53.76980 -135.14608 38958 ft 488 kts 120°
2026-05-08 08:55 53.74127 -135.04247 38960 ft 489 kts 120°
2026-05-08 08:56 53.71251 -134.93846 38963 ft 489 kts 120°
2026-05-08 08:56 53.68370 -134.83471 38964 ft 487 kts 120°
2026-05-08 08:57 53.65490 -134.73148 38963 ft 485 kts 121°
2026-05-08 08:57 53.62609 -134.62867 38962 ft 485 kts 121°
2026-05-08 08:58 53.59733 -134.52652 38965 ft 486 kts 121°
2026-05-08 08:58 53.56826 -134.42366 38961 ft 485 kts 121°
2026-05-08 08:59 53.53934 -134.32179 38959 ft 482 kts 121°
2026-05-08 08:59 53.51037 -134.22027 38958 ft 482 kts 121°
2026-05-08 09:00 53.48128 -134.11870 38963 ft 482 kts 122°
2026-05-08 09:00 53.45211 -134.01728 38964 ft 483 kts 122°
2026-05-08 09:01 53.42292 -133.91621 38965 ft 480 kts 122°
2026-05-08 09:01 53.39369 -133.81553 38967 ft 480 kts 122°
2026-05-08 09:02 53.36463 -133.71579 38967 ft 479 kts 122°
2026-05-08 09:02 53.33527 -133.61545 38969 ft 479 kts 122°
2026-05-08 09:03 53.30583 -133.51530 38972 ft 482 kts 122°
2026-05-08 09:03 53.27607 -133.41445 38986 ft 484 kts 122°
2026-05-08 09:04 53.24616 -133.31349 38989 ft 484 kts 122°
2026-05-08 09:04 53.21616 -133.21273 38994 ft 484 kts 122°
2026-05-08 09:05 53.18614 -133.11228 38990 ft 483 kts 122°
2026-05-08 09:05 53.15633 -133.01294 38986 ft 481 kts 123°
2026-05-08 09:06 53.12629 -132.91329 38991 ft 480 kts 123°
2026-05-08 09:06 53.09625 -132.81402 38990 ft 480 kts 123°
2026-05-08 09:07 53.06608 -132.71476 38984 ft 480 kts 123°
2026-05-08 09:07 53.03585 -132.61570 38994 ft 481 kts 123°